Time,TemperatureF,DewpointF,PressureIn,WindDirection,WindDirectionDegrees,WindSpeedMPH,WindSpeedGustMPH,Humidity,HourlyPrecipIn,Conditions,Clouds,dailyrainin,SoftwareType,DateUTC
2013-05-23 00:00:00,59.8,56.6,29.77,West,260,5.0,6.0,89,0.00,,,0.00,Wunderground v.1.15,2013-05-23 05:00:00,
2013-05-23 00:01:00,59.8,56.6,29.77,West,271,5.0,6.0,89,0.00,,,0.00,Wunderground v.1.15,2013-05-23 05:01:00,
2013-05-23 00:02:00,59.8,56.6,29.77,WSW,253,5.0,6.0,89,0.00,,,0.00,Wunderground v.1.15,2013-05-23 05:02:00,
2013-05-23 00:03:00,59.8,56.6,29.77,WSW,255,4.0,6.0,89,0.00,,,0.00,Wunderground v.1.15,2013-05-23 05:03:00,
2013-05-23 00:04:00,59.8,56.6,29.77,WSW,252,4.0,6.0,89,0.00,,,0.00,Wunderground v.1.15,2013-05-23 05:04:00,
2013-05-23 00:06:00,59.7,56.5,29.77,WSW,252,4.0,6.0,89,0.00,,,0.00,Wunderground v.1.15,2013-05-23 05:06:00,
2013-05-23 00:09:00,59.7,56.5,29.77,West,259,3.0,6.0,89,0.00,,,0.00,Wunderground v.1.15,2013-05-23 05:09:00,
2013-05-23 00:10:00,59.7,56.5,29.77,West,259,3.0,4.0,89,0.00,,,0.00,Wunderground v.1.15,2013-05-23 05:10:00,
2013-05-23 00:11:00,59.7,56.5,29.77,SE,134,3.0,4.0,89,0.00,,,0.00,Wunderground v.1.15,2013-05-23 05:11:00,
2013-05-23 00:12:00,59.7,56.5,29.77,WSW,257,3.0,4.0,89,0.00,,,0.00,Wunderground v.1.15,2013-05-23 05:12:00,
2013-05-23 00:14:00,59.6,56.4,29.77,West,264,3.0,6.0,89,0.00,,,0.00,Wunderground v.1.15,2013-05-23 05:14:00,
2013-05-23 00:15:00,59.6,56.4,29.77,West,262,3.0,6.0,89,0.00,,,0.00,Wunderground v.1.15,2013-05-23 05:15:00,
2013-05-23 00:16:00,59.6,56.7,29.77,WSW,252,3.0,6.0,90,0.00,,,0.00,Wunderground v.1.15,2013-05-23 05:16:00,
2013-05-23 00:20:00,59.6,56.7,29.77,WSW,255,4.0,4.0,90,0.00,,,0.00,Wunderground v.1.15,2013-05-23 05:20:00,
2013-05-23 00:21:00,59.6,56.7,29.77,West,260,4.0,4.0,90,0.00,,,0.00,Wunderground v.1.15,2013-05-23 05:21:00,
2013-05-23 00:22:00,59.5,56.6,29.77,WSW,255,4.0,4.0,90,0.00,,,0.00,Wunderground v.1.15,2013-05-23 05:22:00,
2013-05-23 00:23:00,59.5,56.6,29.77,West,264,4.0,4.0,90,0.00,,,0.00,Wunderground v.1.15,2013-05-23 05:23:00,
2013-05-23 00:26:00,59.4,56.5,29.77,West,271,4.0,6.0,90,0.00,,,0.00,Wunderground v.1.15,2013-05-23 05:26:00,
2013-05-23 00:28:00,59.4,56.5,29.77,WSW,252,4.0,6.0,90,0.00,,,0.00,Wunderground v.1.15,2013-05-23 05:28:00,
2013-05-23 00:30:00,59.4,56.5,29.77,WSW,254,4.0,7.0,90,0.00,,,0.00,Wunderground v.1.15,2013-05-23 05:30:00,
2013-05-23 00:31:00,59.4,56.5,29.77,WSW,257,4.0,7.0,90,0.00,,,0.00,Wunderground v.1.15,2013-05-23 05:31:00,
2013-05-23 00:32:00,59.4,56.5,29.77,West,269,4.0,7.0,90,0.00,,,0.00,Wunderground v.1.15,2013-05-23 05:32:00,
2013-05-23 00:35:00,59.3,56.4,29.77,West,260,4.0,7.0,90,0.00,,,0.00,Wunderground v.1.15,2013-05-23 05:35:00,
2013-05-23 00:37:00,59.3,56.4,29.77,West,263,4.0,7.0,90,0.00,,,0.00,Wunderground v.1.15,2013-05-23 05:37:00,
2013-05-23 00:38:00,59.2,56.3,29.78,WSW,246,4.0,7.0,90,0.00,,,0.00,Wunderground v.1.15,2013-05-23 05:38:00,
2013-05-23 00:40:00,59.2,56.3,29.78,WSW,240,5.0,5.0,90,0.00,,,0.00,Wunderground v.1.15,2013-05-23 05:40:00,
2013-05-23 00:41:00,59.1,56.2,29.78,West,267,5.0,6.0,90,0.00,,,0.00,Wunderground v.1.15,2013-05-23 05:41:00,
2013-05-23 00:43:00,59.1,56.2,29.78,West,259,5.0,6.0,90,0.00,,,0.00,Wunderground v.1.15,2013-05-23 05:43:00,
2013-05-23 00:44:00,59.1,56.2,29.78,WSW,253,5.0,6.0,90,0.00,,,0.00,Wunderground v.1.15,2013-05-23 05:44:00,
2013-05-23 00:46:00,59.0,56.1,29.77,West,267,5.0,6.0,90,0.00,,,0.00,Wunderground v.1.15,2013-05-23 05:46:00,
2013-05-23 00:48:00,59.0,56.4,29.78,West,265,5.0,6.0,91,0.00,,,0.00,Wunderground v.1.15,2013-05-23 05:48:00,
2013-05-23 00:49:00,58.9,56.3,29.78,WSW,254,5.0,5.0,91,0.00,,,0.00,Wunderground v.1.15,2013-05-23 05:49:00,
2013-05-23 00:53:00,58.9,56.3,29.77,WSW,255,5.0,8.0,91,0.00,,,0.00,Wunderground v.1.15,2013-05-23 05:53:00,
2013-05-23 00:55:00,58.8,56.2,29.77,WSW,252,5.0,8.0,91,0.00,,,0.00,Wunderground v.1.15,2013-05-23 05:55:00,
2013-05-23 00:57:00,58.8,56.2,29.77,West,262,5.0,8.0,91,0.00,,,0.00,Wunderground v.1.15,2013-05-23 05:57:00,
2013-05-23 01:01:00,58.8,56.2,29.77,WSW,248,4.0,4.0,91,0.00,,,0.00,Wunderground v.1.15,2013-05-23 06:01:00,
2013-05-23 01:02:00,58.7,56.1,29.77,WSW,249,4.0,4.0,91,0.00,,,0.00,Wunderground v.1.15,2013-05-23 06:02:00,
2013-05-23 01:04:00,58.7,56.1,29.77,WSW,256,4.0,5.0,91,0.00,,,0.00,Wunderground v.1.15,2013-05-23 06:04:00,
2013-05-23 01:06:00,58.7,56.1,29.77,SW,236,4.0,5.0,91,0.00,,,0.00,Wunderground v.1.15,2013-05-23 06:06:00,
2013-05-23 01:09:00,58.6,56.3,29.77,WSW,257,4.0,6.0,92,0.00,,,0.00,Wunderground v.1.15,2013-05-23 06:09:00,
2013-05-23 01:10:00,58.6,56.3,29.77,WSW,253,5.0,6.0,92,0.00,,,0.00,Wunderground v.1.15,2013-05-23 06:10:00,
2013-05-23 01:11:00,58.7,56.4,29.77,WSW,253,5.0,6.0,92,0.00,,,0.00,Wunderground v.1.15,2013-05-23 06:11:00,
2013-05-23 01:14:00,58.7,56.4,29.77,West,260,5.0,6.0,92,0.00,,,0.00,Wunderground v.1.15,2013-05-23 06:14:00,
2013-05-23 01:15:00,58.6,56.3,29.77,WSW,249,5.0,6.0,92,0.00,,,0.00,Wunderground v.1.15,2013-05-23 06:15:00,
2013-05-23 01:19:00,58.7,56.4,29.77,West,269,5.0,7.0,92,0.00,,,0.00,Wunderground v.1.15,2013-05-23 06:19:00,
2013-05-23 01:20:00,58.6,56.3,29.77,West,271,5.0,5.0,92,0.00,,,0.00,Wunderground v.1.15,2013-05-23 06:20:00,
2013-05-23 01:23:00,58.6,56.3,29.77,WSW,257,5.0,6.0,92,0.00,,,0.00,Wunderground v.1.15,2013-05-23 06:23:00,
2013-05-23 01:24:00,58.6,56.3,29.77,WSW,257,5.0,6.0,92,0.00,,,0.00,Wunderground v.1.15,2013-05-23 06:24:00,
2013-05-23 01:25:00,58.6,56.3,29.77,West,274,5.0,7.0,92,0.00,,,0.00,Wunderground v.1.15,2013-05-23 06:25:00,
2013-05-23 01:26:00,58.7,56.4,29.77,WSW,252,5.0,7.0,92,0.00,,,0.00,Wunderground v.1.15,2013-05-23 06:26:00,
2013-05-23 01:28:00,58.7,56.4,29.77,SW,226,5.0,7.0,92,0.00,,,0.00,Wunderground v.1.15,2013-05-23 06:28:00,
2013-05-23 01:29:00,58.7,56.4,29.77,WSW,257,5.0,7.0,92,0.00,,,0.00,Wunderground v.1.15,2013-05-23 06:29:00,
2013-05-23 01:31:00,58.7,56.4,29.77,WSW,255,5.0,6.0,92,0.00,,,0.00,Wunderground v.1.15,2013-05-23 06:31:00,
2013-05-23 01:34:00,58.6,56.3,29.77,WSW,257,5.0,6.0,92,0.00,,,0.00,Wunderground v.1.15,2013-05-23 06:34:00,
2013-05-23 01:37:00,58.7,56.4,29.77,WSW,255,5.0,6.0,92,0.00,,,0.00,Wunderground v.1.15,2013-05-23 06:37:00,
2013-05-23 01:39:00,58.7,56.4,29.77,West,273,5.0,7.0,92,0.00,,,0.00,Wunderground v.1.15,2013-05-23 06:39:00,
2013-05-23 01:41:00,58.7,56.1,29.77,West,270,5.0,7.0,91,0.00,,,0.00,Wunderground v.1.15,2013-05-23 06:41:00,
2013-05-23 01:42:00,58.7,56.4,29.77,West,262,5.0,7.0,92,0.00,,,0.00,Wunderground v.1.15,2013-05-23 06:42:00,
2013-05-23 01:44:00,58.7,56.4,29.77,West,262,6.0,7.0,92,0.00,,,0.00,Wunderground v.1.15,2013-05-23 06:44:00,
2013-05-23 01:46:00,58.7,56.1,29.77,West,262,6.0,7.0,91,0.00,,,0.00,Wunderground v.1.15,2013-05-23 06:46:00,
2013-05-23 01:47:00,58.7,56.4,29.77,WSW,249,6.0,7.0,92,0.00,,,0.00,Wunderground v.1.15,2013-05-23 06:47:00,
2013-05-23 01:48:00,58.7,56.1,29.77,West,264,6.0,7.0,91,0.00,,,0.00,Wunderground v.1.15,2013-05-23 06:48:00,
2013-05-23 01:51:00,58.6,56.0,29.77,WSW,249,6.0,8.0,91,0.00,,,0.00,Wunderground v.1.15,2013-05-23 06:51:00,
2013-05-23 01:52:00,58.7,56.1,29.77,WSW,242,6.0,8.0,91,0.00,,,0.00,Wunderground v.1.15,2013-05-23 06:52:00,
2013-05-23 01:53:00,58.7,56.1,29.77,WSW,249,6.0,9.0,91,0.00,,,0.00,Wunderground v.1.15,2013-05-23 06:53:00,
2013-05-23 01:54:00,58.7,56.1,29.77,WSW,243,6.0,9.0,91,0.00,,,0.00,Wunderground v.1.15,2013-05-23 06:54:00,
2013-05-23 01:58:00,58.7,56.1,29.77,West,260,6.0,10.0,91,0.00,,,0.00,Wunderground v.1.15,2013-05-23 06:58:00,
2013-05-23 01:59:00,58.7,56.1,29.77,WSW,255,7.0,10.0,91,0.00,,,0.00,Wunderground v.1.15,2013-05-23 06:59:00,
2013-05-23 02:00:00,58.6,56.0,29.77,West,264,7.0,7.0,91,0.00,,,0.00,Wunderground v.1.15,2013-05-23 07:00:00,
2013-05-23 02:01:00,58.6,56.0,29.77,West,270,7.0,7.0,91,0.00,,,0.00,Wunderground v.1.15,2013-05-23 07:01:00,
2013-05-23 02:04:00,58.6,56.0,29.77,West,262,7.0,7.0,91,0.00,,,0.00,Wunderground v.1.15,2013-05-23 07:04:00,
2013-05-23 02:06:00,58.6,56.0,29.77,West,264,6.0,7.0,91,0.00,,,0.00,Wunderground v.1.15,2013-05-23 07:06:00,
2013-05-23 02:07:00,58.6,56.0,29.77,West,275,6.0,7.0,91,0.00,,,0.00,Wunderground v.1.15,2013-05-23 07:07:00,
2013-05-23 02:08:00,58.6,56.0,29.78,WSW,250,6.0,7.0,91,0.00,,,0.00,Wunderground v.1.15,2013-05-23 07:08:00,
2013-05-23 02:09:00,58.6,56.0,29.77,West,270,6.0,7.0,91,0.00,,,0.00,Wunderground v.1.15,2013-05-23 07:09:00,
2013-05-23 02:10:00,58.6,56.0,29.77,WSW,248,5.0,5.0,91,0.00,,,0.00,Wunderground v.1.15,2013-05-23 07:10:00,
2013-05-23 02:13:00,58.6,56.0,29.78,West,278,6.0,10.0,91,0.00,,,0.00,Wunderground v.1.15,2013-05-23 07:13:00,
2013-05-23 02:14:00,58.6,56.0,29.78,West,264,6.0,10.0,91,0.00,,,0.00,Wunderground v.1.15,2013-05-23 07:14:00,
2013-05-23 02:15:00,58.6,56.0,29.78,West,270,6.0,10.0,91,0.00,,,0.00,Wunderground v.1.15,2013-05-23 07:15:00,
2013-05-23 02:18:00,58.6,56.0,29.78,SW,226,6.0,10.0,91,0.00,,,0.00,Wunderground v.1.15,2013-05-23 07:18:00,
2013-05-23 02:19:00,58.6,56.0,29.78,West,259,6.0,10.0,91,0.00,,,0.00,Wunderground v.1.15,2013-05-23 07:19:00,
2013-05-23 02:20:00,58.6,56.0,29.78,West,276,6.0,6.0,91,0.00,,,0.00,Wunderground v.1.15,2013-05-23 07:20:00,
2013-05-23 02:24:00,58.6,56.0,29.77,WSW,241,6.0,7.0,91,0.00,,,0.00,Wunderground v.1.15,2013-05-23 07:24:00,
2013-05-23 02:25:00,58.6,56.0,29.78,West,266,6.0,7.0,91,0.00,,,0.00,Wunderground v.1.15,2013-05-23 07:25:00,
2013-05-23 02:26:00,58.6,56.0,29.77,West,262,5.0,7.0,91,0.00,,,0.00,Wunderground v.1.15,2013-05-23 07:26:00,
2013-05-23 02:28:00,58.6,56.0,29.78,WSW,254,5.0,8.0,91,0.00,,,0.00,Wunderground v.1.15,2013-05-23 07:28:00,
2013-05-23 02:29:00,58.6,56.0,29.78,WSW,257,5.0,9.0,91,0.00,,,0.00,Wunderground v.1.15,2013-05-23 07:29:00,
2013-05-23 02:31:00,58.6,56.0,29.78,West,259,5.0,5.0,91,0.00,,,0.00,Wunderground v.1.15,2013-05-23 07:31:00,
2013-05-23 02:32:00,58.6,56.0,29.78,West,267,6.0,6.0,91,0.00,,,0.00,Wunderground v.1.15,2013-05-23 07:32:00,
2013-05-23 02:34:00,58.6,56.0,29.78,West,263,6.0,7.0,91,0.00,,,0.00,Wunderground v.1.15,2013-05-23 07:34:00,
2013-05-23 02:37:00,58.6,56.0,29.78,West,267,6.0,7.0,91,0.00,,,0.00,Wunderground v.1.15,2013-05-23 07:37:00,
2013-05-23 02:38:00,58.6,56.0,29.78,West,262,6.0,7.0,91,0.00,,,0.00,Wunderground v.1.15,2013-05-23 07:38:00,
2013-05-23 02:39:00,58.6,56.0,29.78,West,271,5.0,7.0,91,0.00,,,0.00,Wunderground v.1.15,2013-05-23 07:39:00,
2013-05-23 02:40:00,58.6,56.0,29.78,WNW,297,5.0,5.0,91,0.00,,,0.00,Wunderground v.1.15,2013-05-23 07:40:00,
2013-05-23 02:41:00,58.6,56.0,29.78,SW,222,5.0,5.0,91,0.00,,,0.00,Wunderground v.1.15,2013-05-23 07:41:00,
2013-05-23 02:44:00,58.5,55.6,29.78,WNW,284,4.0,5.0,90,0.00,,,0.00,Wunderground v.1.15,2013-05-23 07:44:00,
2013-05-23 02:45:00,58.5,55.6,29.78,West,281,4.0,7.0,90,0.00,,,0.00,Wunderground v.1.15,2013-05-23 07:45:00,
2013-05-23 02:48:00,58.6,55.7,29.78,WNW,295,4.0,7.0,90,0.00,,,0.00,Wunderground v.1.15,2013-05-23 07:48:00,
2013-05-23 02:49:00,58.5,55.6,29.78,West,278,4.0,7.0,90,0.00,,,0.00,Wunderground v.1.15,2013-05-23 07:49:00,
2013-05-23 02:51:00,58.5,55.3,29.78,West,259,4.0,4.0,89,0.00,,,0.00,Wunderground v.1.15,2013-05-23 07:51:00,
2013-05-23 02:52:00,58.5,55.3,29.78,West,277,4.0,5.0,89,0.00,,,0.00,Wunderground v.1.15,2013-05-23 07:52:00,
2013-05-23 02:54:00,58.5,55.3,29.78,West,271,4.0,7.0,89,0.00,,,0.00,Wunderground v.1.15,2013-05-23 07:54:00,
2013-05-23 02:57:00,58.5,55.3,29.78,WSW,252,5.0,7.0,89,0.00,,,0.00,Wunderground v.1.15,2013-05-23 07:57:00,
2013-05-23 02:59:00,58.5,55.3,29.78,WSW,250,5.0,7.0,89,0.00,,,0.00,Wunderground v.1.15,2013-05-23 07:59:00,
2013-05-23 03:02:00,58.4,55.2,29.78,West,269,5.0,9.0,89,0.00,,,0.00,Wunderground v.1.15,2013-05-23 08:02:00,
2013-05-23 03:04:00,58.4,55.2,29.78,West,274,6.0,9.0,89,0.00,,,0.00,Wunderground v.1.15,2013-05-23 08:04:00,
2013-05-23 03:08:00,58.4,55.2,29.78,West,274,6.0,9.0,89,0.00,,,0.00,Wunderground v.1.15,2013-05-23 08:08:00,
2013-05-23 03:09:00,58.3,55.1,29.78,West,260,6.0,9.0,89,0.00,,,0.00,Wunderground v.1.15,2013-05-23 08:09:00,
2013-05-23 03:10:00,58.3,55.1,29.78,West,280,6.0,6.0,89,0.00,,,0.00,Wunderground v.1.15,2013-05-23 08:10:00,
2013-05-23 03:11:00,58.3,55.1,29.78,WSW,252,6.0,6.0,89,0.00,,,0.00,Wunderground v.1.15,2013-05-23 08:11:00,
2013-05-23 03:12:00,58.2,55.0,29.78,West,272,5.0,6.0,89,0.00,,,0.00,Wunderground v.1.15,2013-05-23 08:12:00,
2013-05-23 03:14:00,58.2,55.0,29.78,West,278,5.0,6.0,89,0.00,,,0.00,Wunderground v.1.15,2013-05-23 08:14:00,
2013-05-23 03:17:00,58.2,55.0,29.78,West,276,5.0,8.0,89,0.00,,,0.00,Wunderground v.1.15,2013-05-23 08:17:00,
2013-05-23 03:18:00,58.2,55.0,29.78,WSW,245,4.0,8.0,89,0.00,,,0.00,Wunderground v.1.15,2013-05-23 08:18:00,
2013-05-23 03:19:00,58.1,54.9,29.78,West,276,5.0,8.0,89,0.00,,,0.00,Wunderground v.1.15,2013-05-23 08:19:00,
2013-05-23 03:20:00,58.2,55.0,29.78,WSW,254,4.0,9.0,89,0.00,,,0.00,Wunderground v.1.15,2013-05-23 08:20:00,
2013-05-23 07:56:00,56.7,55.9,29.87,West,260,0.0,9.0,97,0.00,,,0.01,Wunderground v.1.15,2013-05-23 12:56:00,
2013-05-23 07:57:00,56.8,56.0,29.87,NW,314,0.0,9.0,97,0.00,,,0.01,Wunderground v.1.15,2013-05-23 12:57:00,
2013-05-23 08:00:00,56.9,56.1,29.87,WNW,283,0.0,0.0,97,0.00,,,0.01,Wunderground v.1.15,2013-05-23 13:00:00,
2013-05-23 08:01:00,57.0,56.2,29.87,WSW,242,0.0,0.0,97,0.00,,,0.01,Wunderground v.1.15,2013-05-23 13:01:00,
2013-05-23 08:02:00,57.0,56.2,29.87,WNW,292,0.0,0.0,97,0.00,,,0.01,Wunderground v.1.15,2013-05-23 13:02:00,
2013-05-23 08:03:00,57.0,56.2,29.87,NW,324,0.0,0.0,97,0.00,,,0.01,Wunderground v.1.15,2013-05-23 13:03:00,
2013-05-23 08:04:00,57.0,56.2,29.87,West,259,0.0,0.0,97,0.00,,,0.01,Wunderground v.1.15,2013-05-23 13:04:00,
2013-05-23 08:06:00,57.1,56.3,29.88,NW,312,0.0,0.0,97,0.00,,,0.01,Wunderground v.1.15,2013-05-23 13:06:00,
2013-05-23 08:08:00,57.1,56.3,29.88,WNW,294,0.0,1.0,97,0.00,,,0.01,Wunderground v.1.15,2013-05-23 13:08:00,
2013-05-23 08:13:00,57.2,56.4,29.88,WNW,291,0.0,4.0,97,0.00,,,0.01,Wunderground v.1.15,2013-05-23 13:13:00,
2013-05-23 08:14:00,57.2,56.4,29.88,WNW,290,0.0,4.0,97,0.00,,,0.01,Wunderground v.1.15,2013-05-23 13:14:00,
2013-05-23 08:18:00,57.3,56.5,29.88,WNW,302,0.0,4.0,97,0.00,,,0.01,Wunderground v.1.15,2013-05-23 13:18:00,
2013-05-23 08:19:00,57.4,56.6,29.88,WNW,293,0.0,4.0,97,0.00,,,0.01,Wunderground v.1.15,2013-05-23 13:19:00,
2013-05-23 08:23:00,57.5,56.7,29.88,North,357,0.0,2.0,97,0.00,,,0.01,Wunderground v.1.15,2013-05-23 13:23:00,
2013-05-23 08:25:00,57.5,56.7,29.89,North,354,0.0,2.0,97,0.00,,,0.01,Wunderground v.1.15,2013-05-23 13:25:00,
2013-05-23 08:26:00,57.4,56.6,29.89,North,354,0.0,2.0,97,0.00,,,0.01,Wunderground v.1.15,2013-05-23 13:26:00,
2013-05-23 08:27:00,57.5,56.7,29.89,North,354,0.0,2.0,97,0.00,,,0.01,Wunderground v.1.15,2013-05-23 13:27:00,
2013-05-23 08:29:00,57.6,56.8,29.89,WNW,283,0.0,2.0,97,0.00,,,0.01,Wunderground v.1.15,2013-05-23 13:29:00,
2013-05-23 08:32:00,57.6,56.8,29.89,NW,322,0.0,0.0,97,0.00,,,0.01,Wunderground v.1.15,2013-05-23 13:32:00,
2013-05-23 08:34:00,57.7,56.9,29.89,NNW,338,0.0,1.0,97,0.00,,,0.01,Wunderground v.1.15,2013-05-23 13:34:00,
2013-05-23 08:37:00,57.6,56.8,29.89,NW,312,0.0,2.0,97,0.00,,,0.01,Wunderground v.1.15,2013-05-23 13:37:00,
2013-05-23 08:39:00,57.7,56.9,29.89,NNW,342,0.0,2.0,97,0.00,,,0.01,Wunderground v.1.15,2013-05-23 13:39:00,
2013-05-23 08:40:00,57.6,56.8,29.89,NNE,15,0.0,2.0,97,0.00,,,0.02,Wunderground v.1.15,2013-05-23 13:40:00,
2013-05-23 08:41:00,57.6,56.8,29.89,WSW,257,0.0,2.0,97,0.00,,,0.02,Wunderground v.1.15,2013-05-23 13:41:00,
2013-05-23 08:46:00,57.6,56.8,29.90,North,353,1.0,2.0,97,0.00,,,0.02,Wunderground v.1.15,2013-05-23 13:46:00,
2013-05-23 08:47:00,57.6,56.8,29.90,NNW,340,1.0,2.0,97,0.09,,,0.03,Wunderground v.1.15,2013-05-23 13:47:00,
2013-05-23 08:48:00,57.5,56.7,29.90,NNW,327,1.0,2.0,97,0.09,,,0.03,Wunderground v.1.15,2013-05-23 13:48:00,
2013-05-23 08:49:00,57.5,56.7,29.90,NNW,339,1.0,2.0,97,0.09,,,0.03,Wunderground v.1.15,2013-05-23 13:49:00,
2013-05-23 08:52:00,57.5,56.7,29.90,NNW,335,1.0,1.0,97,0.11,,,0.04,Wunderground v.1.15,2013-05-23 13:52:00,
2013-05-23 08:53:00,57.6,56.8,29.90,NW,305,0.0,1.0,97,0.11,,,0.04,Wunderground v.1.15,2013-05-23 13:53:00,
2013-05-23 08:54:00,57.6,56.8,29.90,WSW,243,0.0,1.0,97,0.11,,,0.04,Wunderground v.1.15,2013-05-23 13:54:00,
2013-05-23 08:56:00,57.6,56.8,29.90,North,358,1.0,1.0,97,0.11,,,0.04,Wunderground v.1.15,2013-05-23 13:56:00,
2013-05-23 08:57:00,57.6,56.8,29.90,North,353,1.0,1.0,97,0.11,,,0.04,Wunderground v.1.15,2013-05-23 13:57:00,
2013-05-23 08:58:00,57.6,56.8,29.90,ESE,112,1.0,2.0,97,0.09,,,0.04,Wunderground v.1.15,2013-05-23 13:58:00,
2013-05-23 09:01:00,57.4,56.6,29.91,NE,37,1.0,1.0,97,0.07,,,0.05,Wunderground v.1.15,2013-05-23 14:01:00,
2013-05-23 09:02:00,57.3,56.2,29.91,NNW,335,1.0,2.0,96,0.07,,,0.05,Wunderground v.1.15,2013-05-23 14:02:00,
2013-05-23 09:05:00,57.1,56.0,29.91,ENE,67,1.0,2.0,96,0.07,,,0.05,Wunderground v.1.15,2013-05-23 14:05:00,
2013-05-23 09:07:00,56.9,55.8,29.91,WNW,287,1.0,4.0,96,0.07,,,0.05,Wunderground v.1.15,2013-05-23 14:07:00,
2013-05-23 09:08:00,56.9,55.8,29.91,NW,321,1.0,4.0,96,0.07,,,0.05,Wunderground v.1.15,2013-05-23 14:08:00,
2013-05-23 09:11:00,56.7,55.6,29.91,NNW,331,1.0,2.0,96,0.06,,,0.05,Wunderground v.1.15,2013-05-23 14:11:00,
2013-05-23 09:13:00,56.6,55.5,29.92,ENE,72,1.0,2.0,96,0.05,,,0.05,Wunderground v.1.15,2013-05-23 14:13:00,
2013-05-23 09:15:00,56.5,55.4,29.92,NNW,333,1.0,2.0,96,0.04,,,0.05,Wunderground v.1.15,2013-05-23 14:15:00,
2013-05-23 09:16:00,56.5,55.4,29.92,NE,56,1.0,3.0,96,0.04,,,0.05,Wunderground v.1.15,2013-05-23 14:16:00,
2013-05-23 09:17:00,56.5,55.4,29.92,NE,36,1.0,3.0,96,0.04,,,0.05,Wunderground v.1.15,2013-05-23 14:17:00,
2013-05-23 09:20:00,56.4,55.3,29.92,NW,304,1.0,1.0,96,0.00,,,0.05,Wunderground v.1.15,2013-05-23 14:20:00,
2013-05-23 09:23:00,56.2,55.1,29.93,NE,37,1.0,3.0,96,0.00,,,0.05,Wunderground v.1.15,2013-05-23 14:23:00,
2013-05-23 09:25:00,56.1,55.0,29.93,North,354,1.0,3.0,96,0.00,,,0.05,Wunderground v.1.15,2013-05-23 14:25:00,
2013-05-23 09:26:00,56.1,55.0,29.93,NNW,327,1.0,3.0,96,0.00,,,0.05,Wunderground v.1.15,2013-05-23 14:26:00,
2013-05-23 09:28:00,56.1,55.0,29.93,NNE,19,1.0,3.0,96,0.00,,,0.05,Wunderground v.1.15,2013-05-23 14:28:00,
2013-05-23 09:30:00,56.1,55.0,29.93,SW,214,1.0,1.0,96,0.00,,,0.05,Wunderground v.1.15,2013-05-23 14:30:00,
2013-05-23 09:32:00,56.0,54.9,29.93,North,8,1.0,2.0,96,0.00,,,0.05,Wunderground v.1.15,2013-05-23 14:32:00,
2013-05-23 09:33:00,56.0,54.9,29.93,NNE,24,1.0,2.0,96,0.00,,,0.05,Wunderground v.1.15,2013-05-23 14:33:00,
2013-05-23 09:35:00,56.1,55.0,29.93,NNE,30,0.0,2.0,96,0.00,,,0.05,Wunderground v.1.15,2013-05-23 14:35:00,
2013-05-23 09:37:00,56.1,55.0,29.93,NNW,327,0.0,2.0,96,0.00,,,0.05,Wunderground v.1.15,2013-05-23 14:37:00,
2013-05-23 09:39:00,56.2,55.1,29.94,NNW,338,1.0,2.0,96,0.00,,,0.05,Wunderground v.1.15,2013-05-23 14:39:00,
2013-05-23 09:40:00,56.2,55.1,29.93,ENE,58,1.0,1.0,96,0.00,,,0.05,Wunderground v.1.15,2013-05-23 14:40:00,
2013-05-23 09:42:00,56.2,55.1,29.94,WNW,290,1.0,1.0,96,0.00,,,0.06,Wunderground v.1.15,2013-05-23 14:42:00,
2013-05-23 09:46:00,56.2,55.1,29.94,NNW,342,1.0,1.0,96,0.00,,,0.06,Wunderground v.1.15,2013-05-23 14:46:00,
2013-05-23 09:47:00,56.3,55.2,29.94,ESE,105,1.0,1.0,96,0.00,,,0.06,Wunderground v.1.15,2013-05-23 14:47:00,
2013-05-23 09:52:00,56.3,55.2,29.95,West,260,0.0,0.0,96,0.00,,,0.06,Wunderground v.1.15,2013-05-23 14:52:00,
2013-05-23 09:54:00,56.4,55.3,29.95,NW,304,0.0,2.0,96,0.00,,,0.06,Wunderground v.1.15,2013-05-23 14:54:00,
2013-05-23 09:56:00,56.4,55.3,29.95,NE,39,0.0,2.0,96,0.00,,,0.06,Wunderground v.1.15,2013-05-23 14:56:00,
2013-05-23 09:57:00,56.4,55.3,29.95,ENE,64,0.0,4.0,96,0.00,,,0.06,Wunderground v.1.15,2013-05-23 14:57:00,
2013-05-23 09:59:00,56.3,55.2,29.95,SSW,205,1.0,4.0,96,0.00,,,0.06,Wunderground v.1.15,2013-05-23 14:59:00,
2013-05-23 10:00:00,56.3,55.2,29.95,North,353,1.0,1.0,96,0.00,,,0.06,Wunderground v.1.15,2013-05-23 15:00:00,
2013-05-23 10:02:00,56.2,55.1,29.95,NNE,23,1.0,1.0,96,0.00,,,0.06,Wunderground v.1.15,2013-05-23 15:02:00,
2013-05-23 10:03:00,56.3,55.2,29.96,SSE,151,1.0,1.0,96,0.00,,,0.06,Wunderground v.1.15,2013-05-23 15:03:00,
2013-05-23 10:06:00,56.2,55.1,29.96,NE,56,1.0,1.0,96,0.00,,,0.06,Wunderground v.1.15,2013-05-23 15:06:00,
2013-05-23 10:07:00,56.2,55.1,29.96,NE,56,1.0,1.0,96,0.00,,,0.06,Wunderground v.1.15,2013-05-23 15:07:00,
2013-05-23 10:08:00,56.2,55.1,29.96,North,357,1.0,1.0,96,0.00,,,0.06,Wunderground v.1.15,2013-05-23 15:08:00,
2013-05-23 10:09:00,56.2,55.1,29.96,NNE,19,1.0,2.0,96,0.00,,,0.06,Wunderground v.1.15,2013-05-23 15:09:00,
2013-05-23 10:10:00,56.1,55.0,29.96,SW,221,1.0,1.0,96,0.00,,,0.06,Wunderground v.1.15,2013-05-23 15:10:00,
2013-05-23 10:13:00,56.1,55.0,29.96,NNW,347,1.0,2.0,96,0.00,,,0.06,Wunderground v.1.15,2013-05-23 15:13:00,
2013-05-23 10:14:00,56.2,55.1,29.96,SE,125,1.0,2.0,96,0.00,,,0.06,Wunderground v.1.15,2013-05-23 15:14:00,
2013-05-23 10:16:00,56.2,55.1,29.96,East,86,1.0,2.0,96,0.00,,,0.06,Wunderground v.1.15,2013-05-23 15:16:00,
2013-05-23 10:18:00,56.3,55.2,29.96,NNW,345,1.0,2.0,96,0.00,,,0.06,Wunderground v.1.15,2013-05-23 15:18:00,
2013-05-23 10:20:00,56.5,55.4,29.96,SE,129,1.0,1.0,96,0.00,,,0.06,Wunderground v.1.15,2013-05-23 15:20:00,
2013-05-23 10:22:00,56.6,55.5,29.96,East,89,1.0,1.0,96,0.00,,,0.06,Wunderground v.1.15,2013-05-23 15:22:00,
2013-05-23 10:23:00,56.6,55.5,29.96,ENE,75,1.0,1.0,96,0.00,,,0.06,Wunderground v.1.15,2013-05-23 15:23:00,
2013-05-23 10:24:00,56.6,55.5,29.96,NW,305,0.0,1.0,96,0.00,,,0.06,Wunderground v.1.15,2013-05-23 15:24:00,
2013-05-23 10:27:00,56.6,55.5,29.97,WNW,293,1.0,1.0,96,0.00,,,0.06,Wunderground v.1.15,2013-05-23 15:27:00,
2013-05-23 10:29:00,56.7,55.6,29.97,SW,228,1.0,1.0,96,0.00,,,0.06,Wunderground v.1.15,2013-05-23 15:29:00,
2013-05-23 10:31:00,56.8,55.7,29.97,NE,43,1.0,4.0,96,0.00,,,0.06,Wunderground v.1.15,2013-05-23 15:31:00,
2013-05-23 10:34:00,56.8,55.7,29.97,ENE,68,1.0,4.0,96,0.00,,,0.06,Wunderground v.1.15,2013-05-23 15:34:00,
2013-05-23 10:35:00,56.7,55.6,29.97,West,263,1.0,4.0,96,0.00,,,0.06,Wunderground v.1.15,2013-05-23 15:35:00,
2013-05-23 10:36:00,56.7,55.3,29.97,NE,44,1.0,4.0,95,0.00,,,0.06,Wunderground v.1.15,2013-05-23 15:36:00,
2013-05-23 10:40:00,56.7,55.3,29.97,NE,40,1.0,1.0,95,0.00,,,0.06,Wunderground v.1.15,2013-05-23 15:40:00,
2013-05-23 10:42:00,56.6,55.2,29.97,WNW,300,1.0,1.0,95,0.00,,,0.06,Wunderground v.1.15,2013-05-23 15:42:00,
2013-05-23 10:45:00,56.7,55.6,29.97,NE,47,0.0,1.0,96,0.00,,,0.06,Wunderground v.1.15,2013-05-23 15:45:00,
2013-05-23 10:49:00,57.1,56.0,29.98,East,84,0.0,1.0,96,0.00,,,0.06,Wunderground v.1.15,2013-05-23 15:49:00,
2013-05-23 10:51:00,57.2,56.1,29.98,ESE,120,0.0,1.0,96,0.00,,,0.06,Wunderground v.1.15,2013-05-23 15:51:00,
2013-05-23 10:53:00,57.6,56.5,29.98,NNW,333,0.0,1.0,96,0.00,,,0.06,Wunderground v.1.15,2013-05-23 15:53:00,
2013-05-23 10:57:00,57.7,56.3,29.98,NE,51,0.0,1.0,95,0.00,,,0.06,Wunderground v.1.15,2013-05-23 15:57:00,
2013-05-23 10:58:00,57.6,55.9,29.98,North,359,1.0,1.0,94,0.00,,,0.06,Wunderground v.1.15,2013-05-23 15:58:00,
2013-05-23 11:01:00,57.3,55.6,29.99,NNW,330,1.0,2.0,94,0.00,,,0.06,Wunderground v.1.15,2013-05-23 16:01:00,
2013-05-23 11:03:00,57.1,55.4,29.99,North,349,1.0,2.0,94,0.00,,,0.06,Wunderground v.1.15,2013-05-23 16:03:00,
2013-05-23 11:04:00,57.0,55.3,29.99,ESE,121,1.0,2.0,94,0.00,,,0.06,Wunderground v.1.15,2013-05-23 16:04:00,
2013-05-23 11:05:00,56.9,55.2,29.99,NNW,337,1.0,2.0,94,0.00,,,0.06,Wunderground v.1.15,2013-05-23 16:05:00,
2013-05-23 11:06:00,56.9,55.2,29.99,North,4,1.0,2.0,94,0.00,,,0.06,Wunderground v.1.15,2013-05-23 16:06:00,
2013-05-23 11:08:00,56.8,55.4,29.99,NNE,29,1.0,2.0,95,0.00,,,0.06,Wunderground v.1.15,2013-05-23 16:08:00,
2013-05-23 11:10:00,56.8,55.4,29.99,NNW,337,1.0,2.0,95,0.00,,,0.06,Wunderground v.1.15,2013-05-23 16:10:00,
2013-05-23 11:13:00,56.9,55.5,29.99,ENE,61,1.0,3.0,95,0.00,,,0.06,Wunderground v.1.15,2013-05-23 16:13:00,
2013-05-23 11:14:00,56.9,55.5,29.99,West,263,0.0,3.0,95,0.00,,,0.06,Wunderground v.1.15,2013-05-23 16:14:00,
2013-05-23 11:16:00,57.1,55.7,29.99,NNW,333,0.0,3.0,95,0.00,,,0.06,Wunderground v.1.15,2013-05-23 16:16:00,
2013-05-23 11:18:00,57.2,56.1,29.99,NNW,328,0.0,5.0,96,0.00,,,0.06,Wunderground v.1.15,2013-05-23 16:18:00,
2013-05-23 11:23:00,57.2,55.5,30.00,North,11,1.0,3.0,94,0.00,,,0.06,Wunderground v.1.15,2013-05-23 16:23:00,
2013-05-23 11:24:00,57.3,55.6,30.00,SSE,148,1.0,3.0,94,0.00,,,0.06,Wunderground v.1.15,2013-05-23 16:24:00,
2013-05-23 11:26:00,57.3,55.3,30.00,NE,51,1.0,3.0,93,0.00,,,0.06,Wunderground v.1.15,2013-05-23 16:26:00,
2013-05-23 11:27:00,57.3,55.3,30.00,NW,324,1.0,3.0,93,0.00,,,0.06,Wunderground v.1.15,2013-05-23 16:27:00,
2013-05-23 11:31:00,57.2,54.9,30.00,WNW,284,1.0,1.0,92,0.00,,,0.06,Wunderground v.1.15,2013-05-23 16:31:00,
2013-05-23 11:32:00,57.3,55.3,30.00,NE,46,1.0,3.0,93,0.00,,,0.06,Wunderground v.1.15,2013-05-23 16:32:00,
2013-05-23 11:33:00,57.4,55.1,30.00,East,82,1.0,3.0,92,0.00,,,0.06,Wunderground v.1.15,2013-05-23 16:33:00,
2013-05-23 11:34:00,57.5,55.5,30.01,NNW,342,1.0,3.0,93,0.00,,,0.06,Wunderground v.1.15,2013-05-23 16:34:00,
2013-05-23 11:38:00,57.8,55.5,30.01,East,79,1.0,5.0,92,0.00,,,0.06,Wunderground v.1.15,2013-05-23 16:38:00,
2013-05-23 11:39:00,57.8,55.5,30.01,ENE,77,1.0,5.0,92,0.00,,,0.06,Wunderground v.1.15,2013-05-23 16:39:00,
2013-05-23 11:40:00,57.9,55.6,30.01,ENE,74,1.0,1.0,92,0.00,,,0.06,Wunderground v.1.15,2013-05-23 16:40:00,
2013-05-23 11:41:00,57.9,55.6,30.01,East,91,1.0,1.0,92,0.00,,,0.06,Wunderground v.1.15,2013-05-23 16:41:00,
2013-05-23 11:42:00,57.9,55.6,30.01,ESE,114,1.0,1.0,92,0.00,,,0.06,Wunderground v.1.15,2013-05-23 16:42:00,
2013-05-23 11:45:00,57.9,55.6,30.01,NNE,12,1.0,5.0,92,0.00,,,0.06,Wunderground v.1.15,2013-05-23 16:45:00,
2013-05-23 11:46:00,57.9,55.6,30.01,NW,315,1.0,5.0,92,0.00,,,0.06,Wunderground v.1.15,2013-05-23 16:46:00,
2013-05-23 11:47:00,57.9,55.3,30.02,NNE,33,1.0,5.0,91,0.00,,,0.06,Wunderground v.1.15,2013-05-23 16:47:00,
2013-05-23 11:48:00,57.9,55.6,30.02,ENE,68,1.0,5.0,92,0.00,,,0.06,Wunderground v.1.15,2013-05-23 16:48:00,
2013-05-23 11:51:00,57.9,55.6,30.02,NE,37,1.0,2.0,92,0.00,,,0.06,Wunderground v.1.15,2013-05-23 16:51:00,
2013-05-23 11:52:00,57.9,55.6,30.02,SE,140,1.0,2.0,92,0.00,,,0.06,Wunderground v.1.15,2013-05-23 16:52:00,
2013-05-23 11:53:00,57.9,55.6,30.02,NW,321,1.0,2.0,92,0.00,,,0.06,Wunderground v.1.15,2013-05-23 16:53:00,
2013-05-23 11:55:00,58.0,55.7,30.02,NE,46,0.0,2.0,92,0.00,,,0.06,Wunderground v.1.15,2013-05-23 16:55:00,
2013-05-23 11:57:00,58.0,55.4,30.02,ENE,75,0.0,2.0,91,0.00,,,0.06,Wunderground v.1.15,2013-05-23 16:57:00,
2013-05-23 11:58:00,58.0,55.7,30.02,NE,53,0.0,2.0,92,0.00,,,0.06,Wunderground v.1.15,2013-05-23 16:58:00,
2013-05-23 12:00:00,58.0,55.4,30.02,North,350,1.0,1.0,91,0.00,,,0.06,Wunderground v.1.15,2013-05-23 17:00:00,
2013-05-23 12:01:00,58.2,55.6,30.02,NNW,333,1.0,1.0,91,0.00,,,0.06,Wunderground v.1.15,2013-05-23 17:01:00,
2013-05-23 12:03:00,58.4,56.1,30.02,NE,40,0.0,1.0,92,0.00,,,0.06,Wunderground v.1.15,2013-05-23 17:03:00,
2013-05-23 12:06:00,58.9,56.3,30.02,ENE,74,0.0,1.0,91,0.00,,,0.06,Wunderground v.1.15,2013-05-23 17:06:00,
2013-05-23 12:08:00,59.1,56.2,30.02,NNW,337,0.0,1.0,90,0.00,,,0.06,Wunderground v.1.15,2013-05-23 17:08:00,
2013-05-23 12:09:00,59.1,55.9,30.02,West,261,0.0,3.0,89,0.00,,,0.06,Wunderground v.1.15,2013-05-23 17:09:00,
2013-05-23 12:11:00,59.2,55.6,30.02,NW,321,1.0,2.0,88,0.00,,,0.07,Wunderground v.1.15,2013-05-23 17:11:00,
2013-05-23 12:13:00,59.3,56.1,30.02,WNW,294,1.0,2.0,89,0.00,,,0.07,Wunderground v.1.15,2013-05-23 17:13:00,
2013-05-23 12:14:00,59.4,56.2,30.02,NNE,32,1.0,2.0,89,0.00,,,0.07,Wunderground v.1.15,2013-05-23 17:14:00,
2013-05-23 12:17:00,59.5,55.6,30.02,North,8,1.0,4.0,87,0.00,,,0.07,Wunderground v.1.15,2013-05-23 17:17:00,
2013-05-23 12:19:00,59.5,55.6,30.02,East,101,1.0,4.0,87,0.00,,,0.07,Wunderground v.1.15,2013-05-23 17:19:00,
2013-05-23 12:20:00,59.6,55.7,30.02,NE,56,1.0,1.0,87,0.00,,,0.07,Wunderground v.1.15,2013-05-23 17:20:00,
2013-05-23 12:21:00,59.7,55.8,30.02,WSW,257,1.0,1.0,87,0.00,,,0.07,Wunderground v.1.15,2013-05-23 17:21:00,
2013-05-23 12:22:00,59.7,55.5,30.02,NNW,337,1.0,1.0,86,0.00,,,0.07,Wunderground v.1.15,2013-05-23 17:22:00,
2013-05-23 12:24:00,59.6,55.1,30.02,North,4,1.0,3.0,85,0.00,,,0.07,Wunderground v.1.15,2013-05-23 17:24:00,
2013-05-23 12:26:00,59.5,55.6,30.02,NE,54,1.0,3.0,87,0.00,,,0.07,Wunderground v.1.15,2013-05-23 17:26:00,
2013-05-23 12:30:00,59.5,55.6,30.02,NW,305,1.0,2.0,87,0.00,,,0.07,Wunderground v.1.15,2013-05-23 17:30:00,
2013-05-23 12:31:00,59.5,55.3,30.02,WNW,293,1.0,2.0,86,0.00,,,0.07,Wunderground v.1.15,2013-05-23 17:31:00,
2013-05-23 12:32:00,59.4,55.2,30.02,NE,36,1.0,2.0,86,0.00,,,0.07,Wunderground v.1.15,2013-05-23 17:32:00,
2013-05-23 12:33:00,59.5,55.6,30.02,ESE,105,1.0,2.0,87,0.00,,,0.07,Wunderground v.1.15,2013-05-23 17:33:00,
2013-05-23 12:35:00,59.4,55.8,30.02,ENE,58,1.0,2.0,88,0.00,,,0.07,Wunderground v.1.15,2013-05-23 17:35:00,
2013-05-23 12:37:00,59.4,55.8,30.02,WNW,298,1.0,2.0,88,0.00,,,0.07,Wunderground v.1.15,2013-05-23 17:37:00,
2013-05-23 12:42:00,59.2,55.3,30.02,NNW,330,1.0,2.0,87,0.00,,,0.07,Wunderground v.1.15,2013-05-23 17:42:00,
2013-05-23 12:43:00,59.3,55.7,30.03,NNE,25,1.0,2.0,88,0.00,,,0.07,Wunderground v.1.15,2013-05-23 17:43:00,
2013-05-23 12:44:00,59.4,55.8,30.03,SW,222,1.0,2.0,88,0.00,,,0.07,Wunderground v.1.15,2013-05-23 17:44:00,
2013-05-23 12:46:00,59.5,55.6,30.03,NNW,337,1.0,2.0,87,0.00,,,0.07,Wunderground v.1.15,2013-05-23 17:46:00,
2013-05-23 12:49:00,59.4,54.9,30.03,ENE,61,1.0,2.0,85,0.00,,,0.07,Wunderground v.1.15,2013-05-23 17:49:00,
2013-05-23 12:51:00,59.4,54.9,30.03,NNW,332,1.0,1.0,85,0.00,,,0.07,Wunderground v.1.15,2013-05-23 17:51:00,
2013-05-23 12:52:00,59.5,55.3,30.03,NNE,25,1.0,1.0,86,0.00,,,0.07,Wunderground v.1.15,2013-05-23 17:52:00,
2013-05-23 12:56:00,60.5,56.0,30.03,NNE,15,1.0,6.0,85,0.00,,,0.07,Wunderground v.1.15,2013-05-23 17:56:00,
2013-05-23 12:57:00,60.6,55.4,30.03,SSW,200,1.0,6.0,83,0.00,,,0.07,Wunderground v.1.15,2013-05-23 17:57:00,
2013-05-23 12:59:00,60.7,55.5,30.03,ESE,115,1.0,6.0,83,0.00,,,0.07,Wunderground v.1.15,2013-05-23 17:59:00,
2013-05-23 13:02:00,60.7,55.5,30.03,East,94,1.0,1.0,83,0.00,,,0.07,Wunderground v.1.15,2013-05-23 18:02:00,
2013-05-23 13:03:00,60.6,55.1,30.03,NE,46,1.0,1.0,82,0.00,,,0.07,Wunderground v.1.15,2013-05-23 18:03:00,
2013-05-23 13:06:00,60.4,55.2,30.04,SE,141,1.0,2.0,83,0.00,,,0.07,Wunderground v.1.15,2013-05-23 18:06:00,
2013-05-23 13:08:00,60.5,55.3,30.03,ENE,78,1.0,2.0,83,0.00,,,0.07,Wunderground v.1.15,2013-05-23 18:08:00,
2013-05-23 13:09:00,60.6,55.7,30.04,NNE,33,1.0,2.0,84,0.00,,,0.07,Wunderground v.1.15,2013-05-23 18:09:00,
2013-05-23 13:12:00,60.7,55.2,30.03,North,8,1.0,3.0,82,0.00,,,0.07,Wunderground v.1.15,2013-05-23 18:12:00,
2013-05-23 13:13:00,60.6,55.1,30.03,NE,43,1.0,3.0,82,0.00,,,0.07,Wunderground v.1.15,2013-05-23 18:13:00,
2013-05-23 13:17:00,60.6,54.7,30.04,ENE,64,1.0,3.0,81,0.00,,,0.07,Wunderground v.1.15,2013-05-23 18:17:00,
2013-05-23 13:19:00,60.9,55.7,30.04,North,8,1.0,3.0,83,0.00,,,0.07,Wunderground v.1.15,2013-05-23 18:19:00,
2013-05-23 13:20:00,61.1,56.2,30.04,East,93,1.0,1.0,84,0.00,,,0.07,Wunderground v.1.15,2013-05-23 18:20:00,
2013-05-23 13:22:00,61.6,56.7,30.04,NNE,23,1.0,1.0,84,0.00,,,0.07,Wunderground v.1.15,2013-05-23 18:22:00,
2013-05-23 13:24:00,61.8,54.5,30.04,SW,224,2.0,3.0,77,0.00,,,0.07,Wunderground v.1.15,2013-05-23 18:24:00,
2013-05-23 13:25:00,61.7,54.1,30.04,North,11,2.0,3.0,76,0.00,,,0.07,Wunderground v.1.15,2013-05-23 18:25:00,
2013-05-23 13:27:00,61.5,54.2,30.05,NW,320,2.0,3.0,77,0.00,,,0.07,Wunderground v.1.15,2013-05-23 18:27:00,
2013-05-23 13:30:00,61.3,54.0,30.05,NNE,12,2.0,2.0,77,0.00,,,0.07,Wunderground v.1.15,2013-05-23 18:30:00,
2013-05-23 13:32:00,61.4,54.1,30.05,NNE,20,2.0,2.0,77,0.00,,,0.07,Wunderground v.1.15,2013-05-23 18:32:00,
2013-05-23 13:35:00,61.7,54.1,30.05,NE,49,1.0,6.0,76,0.00,,,0.07,Wunderground v.1.15,2013-05-23 18:35:00,
2013-05-23 13:37:00,61.7,54.4,30.05,West,271,1.0,6.0,77,0.00,,,0.07,Wunderground v.1.15,2013-05-23 18:37:00,
2013-05-23 13:38:00,61.7,54.4,30.05,SSW,194,1.0,6.0,77,0.00,,,0.07,Wunderground v.1.15,2013-05-23 18:38:00,
2013-05-23 13:39:00,61.7,55.1,30.05,NNE,19,1.0,2.0,79,0.00,,,0.07,Wunderground v.1.15,2013-05-23 18:39:00,
2013-05-23 13:40:00,61.8,55.2,30.05,WSW,255,1.0,2.0,79,0.00,,,0.07,Wunderground v.1.15,2013-05-23 18:40:00,
2013-05-23 13:43:00,61.7,54.4,30.06,East,79,1.0,3.0,77,0.00,,,0.07,Wunderground v.1.15,2013-05-23 18:43:00,
2013-05-23 13:47:00,61.8,54.9,30.06,WNW,285,1.0,3.0,78,0.00,,,0.07,Wunderground v.1.15,2013-05-23 18:47:00,
2013-05-23 13:48:00,61.8,54.9,30.06,ENE,71,1.0,3.0,78,0.00,,,0.07,Wunderground v.1.15,2013-05-23 18:48:00,
2013-05-23 13:49:00,61.9,55.0,30.06,SW,224,1.0,3.0,78,0.00,,,0.07,Wunderground v.1.15,2013-05-23 18:49:00,
2013-05-23 13:52:00,61.8,55.6,30.07,NNE,26,1.0,1.0,80,0.00,,,0.07,Wunderground v.1.15,2013-05-23 18:52:00,
2013-05-23 13:53:00,61.8,54.9,30.07,NNW,333,1.0,2.0,78,0.00,,,0.07,Wunderground v.1.15,2013-05-23 18:53:00,
2013-05-23 13:54:00,61.7,54.4,30.07,ENE,60,1.0,2.0,77,0.00,,,0.07,Wunderground v.1.15,2013-05-23 18:54:00,
2013-05-23 13:56:00,61.6,54.7,30.07,ESE,112,1.0,3.0,78,0.00,,,0.07,Wunderground v.1.15,2013-05-23 18:56:00,
2013-05-23 13:57:00,61.7,54.4,30.07,WSW,253,1.0,3.0,77,0.00,,,0.07,Wunderground v.1.15,2013-05-23 18:57:00,
2013-05-23 14:00:00,62.3,55.0,30.07,NNW,330,1.0,1.0,77,0.00,,,0.07,Wunderground v.1.15,2013-05-23 19:00:00,
2013-05-23 14:01:00,62.5,55.9,30.07,North,355,1.0,5.0,79,0.00,,,0.07,Wunderground v.1.15,2013-05-23 19:01:00,
2013-05-23 14:02:00,62.6,55.3,30.07,NE,56,1.0,5.0,77,0.00,,,0.07,Wunderground v.1.15,2013-05-23 19:02:00,
2013-05-23 14:03:00,62.6,54.6,30.07,NNE,20,1.0,5.0,75,0.00,,,0.07,Wunderground v.1.15,2013-05-23 19:03:00,
2013-05-23 14:05:00,62.3,54.6,30.07,NW,321,1.0,5.0,76,0.00,,,0.07,Wunderground v.1.15,2013-05-23 19:05:00,
2013-05-23 14:07:00,62.2,54.5,30.08,ENE,58,1.0,5.0,76,0.00,,,0.07,Wunderground v.1.15,2013-05-23 19:07:00,
2013-05-23 14:09:00,62.0,55.1,30.07,ENE,68,1.0,5.0,78,0.00,,,0.07,Wunderground v.1.15,2013-05-23 19:09:00,
2013-05-23 14:12:00,62.0,54.7,30.07,NNW,335,1.0,2.0,77,0.00,,,0.07,Wunderground v.1.15,2013-05-23 19:12:00,
2013-05-23 14:14:00,62.0,54.3,30.07,WNW,302,1.0,3.0,76,0.00,,,0.07,Wunderground v.1.15,2013-05-23 19:14:00,
2013-05-23 14:17:00,62.4,55.4,30.07,NW,308,1.0,3.0,78,0.00,,,0.07,Wunderground v.1.15,2013-05-23 19:17:00,
2013-05-23 14:19:00,62.5,54.8,30.07,East,89,1.0,3.0,76,0.00,,,0.07,Wunderground v.1.15,2013-05-23 19:19:00,
2013-05-23 14:21:00,62.6,54.6,30.08,ESE,105,1.0,6.0,75,0.00,,,0.07,Wunderground v.1.15,2013-05-23 19:21:00,
2013-05-23 14:26:00,62.4,54.4,30.08,East,84,1.0,6.0,75,0.00,,,0.07,Wunderground v.1.15,2013-05-23 19:26:00,
2013-05-23 14:27:00,62.5,54.8,30.08,ENE,58,1.0,6.0,76,0.00,,,0.07,Wunderground v.1.15,2013-05-23 19:27:00,
2013-05-23 14:29:00,62.4,54.4,30.08,NE,40,1.0,3.0,75,0.00,,,0.07,Wunderground v.1.15,2013-05-23 19:29:00,
2013-05-23 14:32:00,62.5,55.9,30.08,North,353,2.0,3.0,79,0.00,,,0.07,Wunderground v.1.15,2013-05-23 19:32:00,
2013-05-23 14:33:00,62.7,56.1,30.08,NNW,337,2.0,6.0,79,0.00,,,0.07,Wunderground v.1.15,2013-05-23 19:33:00,
2013-05-23 14:36:00,62.8,55.1,30.08,North,359,2.0,6.0,76,0.00,,,0.07,Wunderground v.1.15,2013-05-23 19:36:00,
2013-05-23 14:38:00,62.8,55.1,30.08,East,94,2.0,6.0,76,0.00,,,0.07,Wunderground v.1.15,2013-05-23 19:38:00,
2013-05-23 14:41:00,62.6,54.9,30.08,East,101,1.0,1.0,76,0.00,,,0.07,Wunderground v.1.15,2013-05-23 19:41:00,
2013-05-23 14:42:00,62.5,54.5,30.08,West,281,1.0,1.0,75,0.00,,,0.07,Wunderground v.1.15,2013-05-23 19:42:00,
2013-05-23 14:44:00,62.5,54.8,30.08,NW,309,1.0,8.0,76,0.00,,,0.07,Wunderground v.1.15,2013-05-23 19:44:00,
2013-05-23 14:47:00,62.7,55.0,30.08,East,86,1.0,8.0,76,0.00,,,0.07,Wunderground v.1.15,2013-05-23 19:47:00,
2013-05-23 14:48:00,62.8,55.5,30.08,NNE,19,1.0,8.0,77,0.00,,,0.07,Wunderground v.1.15,2013-05-23 19:48:00,
2013-05-23 14:49:00,63.0,55.7,30.08,West,267,1.0,8.0,77,0.00,,,0.07,Wunderground v.1.15,2013-05-23 19:49:00,
2013-05-23 14:50:00,63.0,55.3,30.08,NE,56,1.0,1.0,76,0.00,,,0.07,Wunderground v.1.15,2013-05-23 19:50:00,
2013-05-23 14:53:00,62.9,54.9,30.09,NNW,332,1.0,6.0,75,0.00,,,0.07,Wunderground v.1.15,2013-05-23 19:53:00,
2013-05-23 14:54:00,62.9,54.9,30.09,NNW,328,1.0,6.0,75,0.00,,,0.07,Wunderground v.1.15,2013-05-23 19:54:00,
2013-05-23 14:56:00,63.2,55.5,30.09,WSW,257,1.0,6.0,76,0.00,,,0.07,Wunderground v.1.15,2013-05-23 19:56:00,
2013-05-23 14:57:00,63.3,56.0,30.09,SSE,166,1.0,6.0,77,0.00,,,0.07,Wunderground v.1.15,2013-05-23 19:57:00,
2013-05-23 14:58:00,63.5,55.8,30.09,NNW,328,1.0,6.0,76,0.00,,,0.07,Wunderground v.1.15,2013-05-23 19:58:00,
2013-05-23 15:00:00,63.7,55.3,30.09,East,96,2.0,2.0,74,0.00,,,0.07,Wunderground v.1.15,2013-05-23 20:00:00,
2013-05-23 15:03:00,63.7,55.3,30.09,East,81,1.0,2.0,74,0.00,,,0.07,Wunderground v.1.15,2013-05-23 20:03:00,
2013-05-23 15:04:00,63.6,55.2,30.09,NNE,33,1.0,3.0,74,0.00,,,0.07,Wunderground v.1.15,2013-05-23 20:04:00,
2013-05-23 15:09:00,63.5,54.7,30.09,NE,43,1.0,6.0,73,0.00,,,0.07,Wunderground v.1.15,2013-05-23 20:09:00,
2013-05-23 15:10:00,63.5,54.3,30.09,NE,51,1.0,1.0,72,0.00,,,0.07,Wunderground v.1.15,2013-05-23 20:10:00,
2013-05-23 15:12:00,63.6,54.4,30.09,West,262,1.0,1.0,72,0.00,,,0.07,Wunderground v.1.15,2013-05-23 20:12:00,
2013-05-23 15:14:00,63.6,54.0,30.09,ESE,110,1.0,3.0,71,0.00,,,0.07,Wunderground v.1.15,2013-05-23 20:14:00,
2013-05-23 15:16:00,63.4,53.8,30.09,ENE,68,1.0,4.0,71,0.00,,,0.07,Wunderground v.1.15,2013-05-23 20:16:00,
2013-05-23 15:17:00,63.3,54.1,30.09,WNW,296,1.0,4.0,72,0.00,,,0.07,Wunderground v.1.15,2013-05-23 20:17:00,
2013-05-23 15:20:00,63.1,54.7,30.09,ESE,104,1.0,1.0,74,0.00,,,0.07,Wunderground v.1.15,2013-05-23 20:20:00,
2013-05-23 15:21:00,63.1,54.7,30.09,NE,42,1.0,2.0,74,0.00,,,0.07,Wunderground v.1.15,2013-05-23 20:21:00,
2013-05-23 15:25:00,62.7,53.5,30.10,NNW,348,1.0,2.0,72,0.00,,,0.07,Wunderground v.1.15,2013-05-23 20:25:00,
2013-05-23 15:26:00,62.7,54.3,30.10,ENE,71,1.0,2.0,74,0.00,,,0.07,Wunderground v.1.15,2013-05-23 20:26:00,
2013-05-23 15:27:00,62.6,53.8,30.10,NNW,330,1.0,2.0,73,0.00,,,0.07,Wunderground v.1.15,2013-05-23 20:27:00,
2013-05-23 15:31:00,62.4,54.0,30.10,ENE,70,1.0,3.0,74,0.00,,,0.07,Wunderground v.1.15,2013-05-23 20:31:00,
2013-05-23 15:34:00,62.3,52.8,30.10,East,79,1.0,3.0,71,0.00,,,0.07,Wunderground v.1.15,2013-05-23 20:34:00,
2013-05-23 15:36:00,62.2,53.8,30.10,NE,51,1.0,3.0,74,0.00,,,0.07,Wunderground v.1.15,2013-05-23 20:36:00,
2013-05-23 15:39:00,62.1,53.3,30.10,NE,39,1.0,3.0,73,0.00,,,0.07,Wunderground v.1.15,2013-05-23 20:39:00,
2013-05-23 15:41:00,61.9,52.8,30.10,NNE,12,1.0,4.0,72,0.00,,,0.07,Wunderground v.1.15,2013-05-23 20:41:00,
2013-05-23 15:44:00,61.7,53.3,30.10,ESE,108,2.0,4.0,74,0.00,,,0.07,Wunderground v.1.15,2013-05-23 20:44:00,
2013-05-23 15:45:00,61.7,53.0,30.10,East,101,1.0,4.0,73,0.00,,,0.07,Wunderground v.1.15,2013-05-23 20:45:00,
2013-05-23 15:49:00,61.6,53.6,30.10,NNW,340,1.0,4.0,75,0.00,,,0.07,Wunderground v.1.15,2013-05-23 20:49:00,
2013-05-23 15:50:00,61.6,54.0,30.10,ESE,117,1.0,1.0,76,0.00,,,0.07,Wunderground v.1.15,2013-05-23 20:50:00,
2013-05-23 15:53:00,61.7,54.1,30.10,NW,307,0.0,3.0,76,0.00,,,0.07,Wunderground v.1.15,2013-05-23 20:53:00,
2013-05-23 15:57:00,61.8,54.2,30.10,NE,37,0.0,3.0,76,0.00,,,0.07,Wunderground v.1.15,2013-05-23 20:57:00,
2013-05-23 15:58:00,61.8,54.2,30.11,West,279,0.0,3.0,76,0.00,,,0.07,Wunderground v.1.15,2013-05-23 20:58:00,
2013-05-23 16:01:00,61.8,53.4,30.11,ESE,108,1.0,1.0,74,0.00,,,0.07,Wunderground v.1.15,2013-05-23 21:01:00,
2013-05-23 16:03:00,61.8,53.8,30.10,NW,304,1.0,2.0,75,0.00,,,0.07,Wunderground v.1.15,2013-05-23 21:03:00,
2013-05-23 16:05:00,62.0,54.3,30.11,SW,235,1.0,2.0,76,0.00,,,0.07,Wunderground v.1.15,2013-05-23 21:05:00,
2013-05-23 16:09:00,62.3,53.2,30.11,East,81,1.0,4.0,72,0.00,,,0.07,Wunderground v.1.15,2013-05-23 21:09:00,
2013-05-23 16:11:00,62.3,53.5,30.11,ENE,73,1.0,3.0,73,0.00,,,0.07,Wunderground v.1.15,2013-05-23 21:11:00,
2013-05-23 16:12:00,62.2,53.1,30.11,ENE,65,1.0,3.0,72,0.00,,,0.07,Wunderground v.1.15,2013-05-23 21:12:00,
2013-05-23 16:15:00,62.2,53.4,30.11,SSE,151,1.0,3.0,73,0.00,,,0.07,Wunderground v.1.15,2013-05-23 21:15:00,
2013-05-23 16:17:00,62.1,53.0,30.11,NE,37,1.0,4.0,72,0.00,,,0.07,Wunderground v.1.15,2013-05-23 21:17:00,
2013-05-23 16:19:00,62.1,53.3,30.11,NNW,342,1.0,4.0,73,0.00,,,0.07,Wunderground v.1.15,2013-05-23 21:19:00,
2013-05-23 16:20:00,62.1,53.3,30.12,North,350,1.0,2.0,73,0.00,,,0.07,Wunderground v.1.15,2013-05-23 21:20:00,
2013-05-23 16:22:00,62.1,53.7,30.12,ENE,71,1.0,2.0,74,0.00,,,0.07,Wunderground v.1.15,2013-05-23 21:22:00,
2013-05-23 16:24:00,62.0,53.6,30.12,West,273,1.0,3.0,74,0.00,,,0.07,Wunderground v.1.15,2013-05-23 21:24:00,
2013-05-23 16:25:00,62.0,53.6,30.12,ENE,63,1.0,3.0,74,0.00,,,0.07,Wunderground v.1.15,2013-05-23 21:25:00,
2013-05-23 16:26:00,61.9,53.1,30.12,East,101,1.0,3.0,73,0.00,,,0.07,Wunderground v.1.15,2013-05-23 21:26:00,
2013-05-23 16:28:00,61.8,54.2,30.12,WNW,287,1.0,3.0,76,0.00,,,0.07,Wunderground v.1.15,2013-05-23 21:28:00,
2013-05-23 16:30:00,61.8,53.4,30.12,East,98,1.0,1.0,74,0.00,,,0.07,Wunderground v.1.15,2013-05-23 21:30:00,
2013-05-23 16:32:00,61.9,53.9,30.12,NE,43,1.0,1.0,75,0.00,,,0.07,Wunderground v.1.15,2013-05-23 21:32:00,
2013-05-23 16:33:00,62.0,54.0,30.12,NE,46,1.0,1.0,75,0.00,,,0.07,Wunderground v.1.15,2013-05-23 21:33:00,
2013-05-23 16:34:00,62.0,53.6,30.12,NE,44,1.0,1.0,74,0.00,,,0.07,Wunderground v.1.15,2013-05-23 21:34:00,
2013-05-23 16:36:00,62.0,53.6,30.12,SW,235,1.0,1.0,74,0.00,,,0.07,Wunderground v.1.15,2013-05-23 21:36:00,
2013-05-23 16:38:00,62.1,54.1,30.12,NNE,30,0.0,1.0,75,0.00,,,0.07,Wunderground v.1.15,2013-05-23 21:38:00,
2013-05-23 16:39:00,62.1,54.1,30.12,ENE,77,1.0,1.0,75,0.00,,,0.07,Wunderground v.1.15,2013-05-23 21:39:00,
2013-05-23 16:44:00,62.0,53.6,30.12,NE,50,1.0,1.0,74,0.00,,,0.07,Wunderground v.1.15,2013-05-23 21:44:00,
2013-05-23 16:45:00,62.0,54.0,30.12,WNW,302,1.0,1.0,75,0.00,,,0.07,Wunderground v.1.15,2013-05-23 21:45:00,
2013-05-23 16:46:00,62.0,53.6,30.13,ESE,107,1.0,1.0,74,0.00,,,0.07,Wunderground v.1.15,2013-05-23 21:46:00,
2013-05-23 16:50:00,62.0,53.6,30.13,NNW,337,1.0,1.0,74,0.00,,,0.07,Wunderground v.1.15,2013-05-23 21:50:00,
2013-05-23 16:51:00,62.1,53.7,30.12,NW,326,0.0,1.0,74,0.00,,,0.07,Wunderground v.1.15,2013-05-23 21:51:00,
2013-05-23 16:52:00,62.1,54.4,30.12,NE,37,0.0,1.0,76,0.00,,,0.07,Wunderground v.1.15,2013-05-23 21:52:00,
2013-05-23 16:53:00,62.2,54.2,30.13,NE,37,0.0,1.0,75,0.00,,,0.07,Wunderground v.1.15,2013-05-23 21:53:00,
2013-05-23 16:56:00,62.4,54.4,30.13,NNE,16,0.0,1.0,75,0.00,,,0.07,Wunderground v.1.15,2013-05-23 21:56:00,
2013-05-23 16:57:00,62.4,54.7,30.13,ENE,76,0.0,3.0,76,0.00,,,0.07,Wunderground v.1.15,2013-05-23 21:57:00,
2013-05-23 16:58:00,62.5,53.7,30.13,NNW,347,0.0,3.0,73,0.00,,,0.07,Wunderground v.1.15,2013-05-23 21:58:00,
2013-05-23 17:01:00,62.5,53.7,30.13,NNE,33,0.0,4.0,73,0.00,,,0.07,Wunderground v.1.15,2013-05-23 22:01:00,
2013-05-23 17:03:00,62.4,52.9,30.13,ENE,58,1.0,4.0,71,0.00,,,0.07,Wunderground v.1.15,2013-05-23 22:03:00,
2013-05-23 17:06:00,62.3,53.5,30.13,ENE,76,1.0,4.0,73,0.00,,,0.07,Wunderground v.1.15,2013-05-23 22:06:00,
2013-05-23 17:08:00,62.2,53.4,30.13,SE,131,1.0,4.0,73,0.00,,,0.07,Wunderground v.1.15,2013-05-23 22:08:00,
2013-05-23 17:09:00,62.2,52.7,30.13,East,87,1.0,4.0,71,0.00,,,0.07,Wunderground v.1.15,2013-05-23 22:09:00,
2013-05-23 17:12:00,62.1,53.0,30.13,East,86,1.0,2.0,72,0.00,,,0.07,Wunderground v.1.15,2013-05-23 22:12:00,
2013-05-23 17:13:00,62.0,52.9,30.13,ENE,60,1.0,2.0,72,0.00,,,0.07,Wunderground v.1.15,2013-05-23 22:13:00,
2013-05-23 17:17:00,62.2,53.8,30.13,West,280,1.0,2.0,74,0.00,,,0.07,Wunderground v.1.15,2013-05-23 22:17:00,
2013-05-23 17:19:00,62.2,53.4,30.13,NE,53,1.0,2.0,73,0.00,,,0.07,Wunderground v.1.15,2013-05-23 22:19:00,
2013-05-23 17:20:00,62.3,53.9,30.13,NNW,330,0.0,0.0,74,0.00,,,0.07,Wunderground v.1.15,2013-05-23 22:20:00,
2013-05-23 17:22:00,62.2,52.7,30.13,NNW,338,0.0,0.0,71,0.00,,,0.07,Wunderground v.1.15,2013-05-23 22:22:00,
2013-05-23 17:23:00,62.3,53.2,30.13,East,101,0.0,0.0,72,0.00,,,0.07,Wunderground v.1.15,2013-05-23 22:23:00,
2013-05-23 17:24:00,62.3,53.9,30.13,WSW,248,0.0,0.0,74,0.00,,,0.07,Wunderground v.1.15,2013-05-23 22:24:00,
2013-05-23 17:25:00,62.4,54.0,30.14,NW,323,0.0,0.0,74,0.00,,,0.07,Wunderground v.1.15,2013-05-23 22:25:00,
2013-05-23 17:29:00,62.8,53.3,30.13,ENE,74,0.0,4.0,71,0.00,,,0.07,Wunderground v.1.15,2013-05-23 22:29:00,
2013-05-23 17:30:00,62.8,53.3,30.13,NNW,339,0.0,0.0,71,0.00,,,0.07,Wunderground v.1.15,2013-05-23 22:30:00,
2013-05-23 17:31:00,62.9,53.0,30.14,East,99,1.0,2.0,70,0.00,,,0.07,Wunderground v.1.15,2013-05-23 22:31:00,
2013-05-23 17:34:00,62.7,53.2,30.14,NE,51,1.0,2.0,71,0.00,,,0.07,Wunderground v.1.15,2013-05-23 22:34:00,
2013-05-23 17:35:00,62.6,53.1,30.14,SE,136,1.0,2.0,71,0.00,,,0.07,Wunderground v.1.15,2013-05-23 22:35:00,
2013-05-23 17:36:00,62.6,53.1,30.14,East,79,1.0,6.0,71,0.00,,,0.07,Wunderground v.1.15,2013-05-23 22:36:00,
2013-05-23 17:37:00,62.4,52.5,30.14,East,97,2.0,6.0,70,0.00,,,0.07,Wunderground v.1.15,2013-05-23 22:37:00,
2013-05-23 17:39:00,62.2,53.1,30.14,NW,309,2.0,6.0,72,0.00,,,0.07,Wunderground v.1.15,2013-05-23 22:39:00,
2013-05-23 17:40:00,62.2,53.1,30.14,East,94,2.0,2.0,72,0.00,,,0.07,Wunderground v.1.15,2013-05-23 22:40:00,
2013-05-23 17:43:00,62.1,53.0,30.14,ENE,64,2.0,4.0,72,0.00,,,0.07,Wunderground v.1.15,2013-05-23 22:43:00,
2013-05-23 17:44:00,62.1,53.0,30.14,East,86,2.0,4.0,72,0.00,,,0.07,Wunderground v.1.15,2013-05-23 22:44:00,
2013-05-23 17:45:00,62.1,52.6,30.14,NE,53,2.0,4.0,71,0.00,,,0.07,Wunderground v.1.15,2013-05-23 22:45:00,
2013-05-23 17:46:00,62.2,53.4,30.14,NNW,346,2.0,4.0,73,0.00,,,0.07,Wunderground v.1.15,2013-05-23 22:46:00,
2013-05-23 17:49:00,62.8,53.3,30.14,East,85,1.0,4.0,71,0.00,,,0.07,Wunderground v.1.15,2013-05-23 22:49:00,
2013-05-23 17:50:00,62.9,53.0,30.14,NE,51,1.0,1.0,70,0.00,,,0.07,Wunderground v.1.15,2013-05-23 22:50:00,
2013-05-23 17:53:00,63.0,53.1,30.14,WNW,294,1.0,4.0,70,0.00,,,0.07,Wunderground v.1.15,2013-05-23 22:53:00,
2013-05-23 17:56:00,62.7,53.2,30.14,ENE,60,1.0,4.0,71,0.00,,,0.07,Wunderground v.1.15,2013-05-23 22:56:00,
2013-05-23 17:57:00,62.7,53.2,30.14,East,89,1.0,4.0,71,0.00,,,0.07,Wunderground v.1.15,2013-05-23 22:57:00,
2013-05-23 17:58:00,62.6,53.4,30.14,ENE,72,1.0,4.0,72,0.00,,,0.07,Wunderground v.1.15,2013-05-23 22:58:00,
2013-05-23 18:01:00,62.2,52.7,30.14,ENE,69,2.0,4.0,71,0.00,,,0.07,Wunderground v.1.15,2013-05-23 23:01:00,
2013-05-23 18:02:00,62.1,53.0,30.15,ESE,121,2.0,4.0,72,0.00,,,0.07,Wunderground v.1.15,2013-05-23 23:02:00,
2013-05-23 18:04:00,61.9,52.4,30.14,ENE,77,2.0,4.0,71,0.00,,,0.07,Wunderground v.1.15,2013-05-23 23:04:00,
2013-05-23 18:05:00,61.8,52.7,30.15,ESE,108,2.0,4.0,72,0.00,,,0.07,Wunderground v.1.15,2013-05-23 23:05:00,
2013-05-23 18:08:00,61.6,52.5,30.15,East,90,2.0,4.0,72,0.00,,,0.07,Wunderground v.1.15,2013-05-23 23:08:00,
2013-05-23 18:09:00,61.6,52.9,30.15,ENE,67,2.0,4.0,73,0.00,,,0.07,Wunderground v.1.15,2013-05-23 23:09:00,
2013-05-23 18:14:00,61.7,53.3,30.15,SE,139,1.0,3.0,74,0.00,,,0.07,Wunderground v.1.15,2013-05-23 23:14:00,
2013-05-23 18:15:00,61.8,53.4,30.15,NNE,13,1.0,3.0,74,0.00,,,0.07,Wunderground v.1.15,2013-05-23 23:15:00,
2013-05-23 18:16:00,61.9,53.5,30.15,ENE,76,1.0,6.0,74,0.00,,,0.07,Wunderground v.1.15,2013-05-23 23:16:00,
2013-05-23 18:17:00,61.9,52.4,30.15,ENE,64,1.0,6.0,71,0.00,,,0.07,Wunderground v.1.15,2013-05-23 23:17:00,
2013-05-23 18:20:00,61.8,51.9,30.15,ENE,68,2.0,2.0,70,0.00,,,0.07,Wunderground v.1.15,2013-05-23 23:20:00,
2013-05-23 18:22:00,61.8,52.7,30.15,ENE,57,2.0,4.0,72,0.00,,,0.07,Wunderground v.1.15,2013-05-23 23:22:00,
2013-05-23 18:23:00,61.9,52.4,30.15,NE,46,2.0,4.0,71,0.00,,,0.07,Wunderground v.1.15,2013-05-23 23:23:00,
2013-05-23 18:25:00,61.8,52.3,30.15,ESE,103,2.0,4.0,71,0.00,,,0.07,Wunderground v.1.15,2013-05-23 23:25:00,
2013-05-23 18:28:00,61.7,52.2,30.15,ENE,58,2.0,5.0,71,0.00,,,0.07,Wunderground v.1.15,2013-05-23 23:28:00,
2013-05-23 18:30:00,61.7,52.6,30.15,East,92,2.0,3.0,72,0.00,,,0.07,Wunderground v.1.15,2013-05-23 23:30:00,
2013-05-23 18:32:00,61.8,52.3,30.15,ENE,61,2.0,3.0,71,0.00,,,0.07,Wunderground v.1.15,2013-05-23 23:32:00,
2013-05-23 18:34:00,61.8,52.3,30.15,East,83,2.0,3.0,71,0.00,,,0.07,Wunderground v.1.15,2013-05-23 23:34:00,
2013-05-23 18:38:00,61.8,52.3,30.15,ENE,60,1.0,3.0,71,0.00,,,0.07,Wunderground v.1.15,2013-05-23 23:38:00,
2013-05-23 18:39:00,61.8,52.3,30.15,NE,56,1.0,3.0,71,0.00,,,0.07,Wunderground v.1.15,2013-05-23 23:39:00,
2013-05-23 18:40:00,61.8,52.3,30.15,East,98,1.0,2.0,71,0.00,,,0.07,Wunderground v.1.15,2013-05-23 23:40:00,
2013-05-23 18:41:00,61.7,52.2,30.15,East,81,1.0,2.0,71,0.00,,,0.07,Wunderground v.1.15,2013-05-23 23:41:00,
2013-05-23 18:42:00,61.7,53.0,30.15,ENE,75,1.0,5.0,73,0.00,,,0.07,Wunderground v.1.15,2013-05-23 23:42:00,
2013-05-23 18:43:00,61.7,52.2,30.15,ESE,107,1.0,5.0,71,0.00,,,0.07,Wunderground v.1.15,2013-05-23 23:43:00,
2013-05-23 18:45:00,61.6,52.1,30.15,ENE,73,1.0,5.0,71,0.00,,,0.07,Wunderground v.1.15,2013-05-23 23:45:00,
2013-05-23 18:48:00,61.4,52.3,30.15,ENE,73,1.0,5.0,72,0.00,,,0.07,Wunderground v.1.15,2013-05-23 23:48:00,
2013-05-23 18:49:00,61.4,52.3,30.15,ENE,68,1.0,1.0,72,0.00,,,0.07,Wunderground v.1.15,2013-05-23 23:49:00,
2013-05-23 18:51:00,61.4,53.0,30.15,NW,319,1.0,2.0,74,0.00,,,0.07,Wunderground v.1.15,2013-05-23 23:51:00,
2013-05-23 18:53:00,61.5,53.1,30.15,East,98,1.0,2.0,74,0.00,,,0.07,Wunderground v.1.15,2013-05-23 23:53:00,
2013-05-23 18:54:00,61.5,52.4,30.15,East,81,1.0,2.0,72,0.00,,,0.07,Wunderground v.1.15,2013-05-23 23:54:00,
2013-05-23 18:56:00,61.5,52.4,30.15,NE,44,1.0,2.0,72,0.00,,,0.07,Wunderground v.1.15,2013-05-23 23:56:00,
2013-05-23 18:58:00,61.3,52.2,30.16,NE,36,1.0,2.0,72,0.00,,,0.07,Wunderground v.1.15,2013-05-23 23:58:00,
2013-05-23 19:01:00,61.1,52.0,30.16,ENE,68,1.0,3.0,72,0.00,,,0.07,Wunderground v.1.15,2013-05-24 00:01:00,
2013-05-23 19:02:00,61.0,52.3,30.16,ENE,64,1.0,3.0,73,0.00,,,0.07,Wunderground v.1.15,2013-05-24 00:02:00,
2013-05-23 19:06:00,60.9,51.8,30.16,East,98,2.0,3.0,72,0.00,,,0.07,Wunderground v.1.15,2013-05-24 00:06:00,
2013-05-23 19:07:00,60.8,52.1,30.16,ENE,77,2.0,3.0,73,0.00,,,0.07,Wunderground v.1.15,2013-05-24 00:07:00,
2013-05-23 19:09:00,60.8,52.1,30.16,ENE,72,1.0,3.0,73,0.00,,,0.07,Wunderground v.1.15,2013-05-24 00:09:00,
2013-05-23 19:11:00,60.8,52.5,30.16,ENE,68,1.0,1.0,74,0.00,,,0.07,Wunderground v.1.15,2013-05-24 00:11:00,
2013-05-23 19:13:00,60.7,52.4,30.16,SE,131,1.0,1.0,74,0.00,,,0.07,Wunderground v.1.15,2013-05-24 00:13:00,
2013-05-23 19:14:00,60.7,52.4,30.16,NNE,27,1.0,1.0,74,0.00,,,0.07,Wunderground v.1.15,2013-05-24 00:14:00,
2013-05-23 19:16:00,60.5,52.2,30.16,NNE,16,1.0,1.0,74,0.00,,,0.07,Wunderground v.1.15,2013-05-24 00:16:00,
2013-05-23 19:19:00,60.3,51.6,30.16,ESE,110,1.0,2.0,73,0.00,,,0.07,Wunderground v.1.15,2013-05-24 00:19:00,
2013-05-23 19:20:00,60.1,51.8,30.16,NE,43,1.0,1.0,74,0.00,,,0.07,Wunderground v.1.15,2013-05-24 00:20:00,
2013-05-23 19:22:00,60.0,52.1,30.16,ENE,62,1.0,1.0,75,0.00,,,0.07,Wunderground v.1.15,2013-05-24 00:22:00,
2013-05-23 19:24:00,59.9,52.0,30.16,ENE,66,1.0,1.0,75,0.00,,,0.07,Wunderground v.1.15,2013-05-24 00:24:00,
2013-05-23 19:26:00,59.7,51.4,30.17,ENE,68,1.0,1.0,74,0.00,,,0.07,Wunderground v.1.15,2013-05-24 00:26:00,
2013-05-23 19:27:00,59.6,51.7,30.17,ENE,65,1.0,1.0,75,0.00,,,0.07,Wunderground v.1.15,2013-05-24 00:27:00,
2013-05-23 19:28:00,59.5,51.6,30.17,ENE,65,0.0,1.0,75,0.00,,,0.07,Wunderground v.1.15,2013-05-24 00:28:00,
2013-05-23 19:31:00,59.4,51.5,30.17,ENE,63,0.0,1.0,75,0.00,,,0.07,Wunderground v.1.15,2013-05-24 00:31:00,
2013-05-23 19:33:00,59.1,51.5,30.17,ENE,68,0.0,1.0,76,0.00,,,0.07,Wunderground v.1.15,2013-05-24 00:33:00,
2013-05-23 19:34:00,59.1,51.5,30.17,ENE,72,0.0,1.0,76,0.00,,,0.07,Wunderground v.1.15,2013-05-24 00:34:00,
2013-05-23 19:37:00,58.9,51.3,30.17,East,86,0.0,1.0,76,0.00,,,0.07,Wunderground v.1.15,2013-05-24 00:37:00,
2013-05-23 19:41:00,58.5,51.7,30.17,NE,44,0.0,1.0,78,0.00,,,0.07,Wunderground v.1.15,2013-05-24 00:41:00,
2013-05-23 19:42:00,58.4,51.2,30.17,ENE,72,0.0,1.0,77,0.00,,,0.07,Wunderground v.1.15,2013-05-24 00:42:00,
2013-05-23 19:43:00,58.3,51.5,30.17,ENE,72,0.0,1.0,78,0.00,,,0.07,Wunderground v.1.15,2013-05-24 00:43:00,
2013-05-23 19:47:00,58.0,51.2,30.17,East,90,0.0,1.0,78,0.00,,,0.07,Wunderground v.1.15,2013-05-24 00:47:00,
2013-05-23 19:50:00,57.9,51.1,30.17,NE,34,0.0,1.0,78,0.00,,,0.07,Wunderground v.1.15,2013-05-24 00:50:00,
2013-05-23 19:52:00,57.8,51.0,30.17,ENE,65,0.0,1.0,78,0.00,,,0.07,Wunderground v.1.15,2013-05-24 00:52:00,
2013-05-23 19:53:00,57.7,50.9,30.17,ENE,72,0.0,1.0,78,0.00,,,0.07,Wunderground v.1.15,2013-05-24 00:53:00,
2013-05-23 19:57:00,57.4,50.9,30.17,East,82,0.0,1.0,79,0.00,,,0.07,Wunderground v.1.15,2013-05-24 00:57:00,
2013-05-23 19:58:00,57.4,50.9,30.17,NE,44,0.0,1.0,79,0.00,,,0.07,Wunderground v.1.15,2013-05-24 00:58:00,
2013-05-23 20:00:00,57.3,50.8,30.17,East,88,0.0,0.0,79,0.00,,,0.07,Wunderground v.1.15,2013-05-24 01:00:00,
2013-05-23 20:04:00,57.1,50.6,30.17,ENE,68,0.0,0.0,79,0.00,,,0.07,Wunderground v.1.15,2013-05-24 01:04:00,
2013-05-23 20:05:00,57.0,50.5,30.17,ENE,68,0.0,0.0,79,0.00,,,0.07,Wunderground v.1.15,2013-05-24 01:05:00,
2013-05-23 20:08:00,56.8,50.7,30.17,ENE,68,0.0,0.0,80,0.00,,,0.07,Wunderground v.1.15,2013-05-24 01:08:00,
2013-05-23 20:10:00,56.7,50.6,30.17,ENE,68,0.0,0.0,80,0.00,,,0.07,Wunderground v.1.15,2013-05-24 01:10:00,
2013-05-23 20:11:00,56.5,50.4,30.17,ENE,68,0.0,0.0,80,0.00,,,0.07,Wunderground v.1.15,2013-05-24 01:11:00,
2013-05-23 20:13:00,56.4,50.6,30.17,East,89,0.0,0.0,81,0.00,,,0.07,Wunderground v.1.15,2013-05-24 01:13:00,
2013-05-23 20:15:00,56.2,50.4,30.17,East,89,0.0,0.0,81,0.00,,,0.07,Wunderground v.1.15,2013-05-24 01:15:00,
2013-05-23 20:17:00,56.1,50.3,30.18,East,91,0.0,0.0,81,0.00,,,0.07,Wunderground v.1.15,2013-05-24 01:17:00,
2013-05-23 20:18:00,56.0,50.3,30.18,East,91,0.0,0.0,81,0.00,,,0.07,Wunderground v.1.15,2013-05-24 01:18:00,
2013-05-23 20:22:00,55.7,50.3,30.18,East,91,0.0,0.0,82,0.00,,,0.07,Wunderground v.1.15,2013-05-24 01:22:00,
2013-05-23 20:23:00,55.6,50.2,30.18,East,91,0.0,0.0,82,0.00,,,0.07,Wunderground v.1.15,2013-05-24 01:23:00,
2013-05-23 20:26:00,55.4,50.3,30.18,East,91,0.0,0.0,83,0.00,,,0.07,Wunderground v.1.15,2013-05-24 01:26:00,
2013-05-23 20:28:00,55.2,50.1,30.18,East,91,0.0,0.0,83,0.00,,,0.07,Wunderground v.1.15,2013-05-24 01:28:00,
2013-05-23 20:29:00,55.1,50.0,30.18,East,91,0.0,0.0,83,0.00,,,0.07,Wunderground v.1.15,2013-05-24 01:29:00,
2013-05-23 20:31:00,55.0,49.9,30.18,East,91,0.0,0.0,83,0.00,,,0.07,Wunderground v.1.15,2013-05-24 01:31:00,
2013-05-23 20:34:00,54.7,50.0,30.18,East,91,0.0,0.0,84,0.00,,,0.07,Wunderground v.1.15,2013-05-24 01:34:00,
2013-05-23 20:35:00,54.6,50.2,30.18,East,90,0.0,0.0,85,0.00,,,0.07,Wunderground v.1.15,2013-05-24 01:35:00,
2013-05-23 20:36:00,54.5,50.1,30.18,East,91,0.0,0.0,85,0.00,,,0.07,Wunderground v.1.15,2013-05-24 01:36:00,
2013-05-23 20:37:00,54.5,50.4,30.18,East,91,0.0,0.0,86,0.00,,,0.07,Wunderground v.1.15,2013-05-24 01:37:00,
2013-05-23 20:40:00,54.2,50.1,30.18,East,91,0.0,0.0,86,0.00,,,0.07,Wunderground v.1.15,2013-05-24 01:40:00,
2013-05-23 20:41:00,54.2,50.1,30.18,East,91,0.0,0.0,86,0.00,,,0.07,Wunderground v.1.15,2013-05-24 01:41:00,
2013-05-23 20:42:00,54.1,50.3,30.18,East,91,0.0,0.0,87,0.00,,,0.07,Wunderground v.1.15,2013-05-24 01:42:00,
2013-05-23 20:43:00,54.0,50.2,30.19,East,91,0.0,0.0,87,0.00,,,0.07,Wunderground v.1.15,2013-05-24 01:43:00,
2013-05-23 20:45:00,53.8,50.0,30.19,East,91,0.0,0.0,87,0.00,,,0.07,Wunderground v.1.15,2013-05-24 01:45:00,
2013-05-23 20:46:00,53.7,49.9,30.19,East,91,0.0,0.0,87,0.00,,,0.07,Wunderground v.1.15,2013-05-24 01:46:00,
2013-05-23 20:47:00,53.6,49.8,30.19,East,91,0.0,0.0,87,0.00,,,0.07,Wunderground v.1.15,2013-05-24 01:47:00,
2013-05-23 20:48:00,53.6,50.1,30.19,East,91,0.0,0.0,88,0.00,,,0.07,Wunderground v.1.15,2013-05-24 01:48:00,
2013-05-23 20:51:00,53.3,49.8,30.19,East,90,0.0,0.0,88,0.00,,,0.07,Wunderground v.1.15,2013-05-24 01:51:00,
2013-05-23 20:53:00,53.2,49.7,30.19,East,91,0.0,0.0,88,0.00,,,0.07,Wunderground v.1.15,2013-05-24 01:53:00,
2013-05-23 20:56:00,53.1,49.9,30.19,East,90,0.0,0.0,89,0.00,,,0.07,Wunderground v.1.15,2013-05-24 01:56:00,
2013-05-23 20:59:00,53.0,49.8,30.19,East,89,0.0,0.0,89,0.00,,,0.07,Wunderground v.1.15,2013-05-24 01:59:00,
2013-05-23 21:00:00,53.0,49.8,30.19,East,89,0.0,0.0,89,0.00,,,0.07,Wunderground v.1.15,2013-05-24 02:00:00,
2013-05-23 21:01:00,52.9,49.7,30.19,East,89,0.0,0.0,89,0.00,,,0.07,Wunderground v.1.15,2013-05-24 02:01:00,
2013-05-23 21:05:00,52.8,49.9,30.19,East,89,0.0,0.0,90,0.00,,,0.07,Wunderground v.1.15,2013-05-24 02:05:00,
2013-05-23 21:07:00,52.6,49.8,30.20,East,89,0.0,0.0,90,0.00,,,0.07,Wunderground v.1.15,2013-05-24 02:07:00,
2013-05-23 21:09:00,52.5,49.7,30.20,East,89,0.0,0.0,90,0.00,,,0.07,Wunderground v.1.15,2013-05-24 02:09:00,
2013-05-23 21:11:00,52.4,49.8,30.20,East,89,0.0,0.0,91,0.00,,,0.07,Wunderground v.1.15,2013-05-24 02:11:00,
2013-05-23 21:16:00,52.2,49.7,30.20,East,89,0.0,0.0,91,0.00,,,0.07,Wunderground v.1.15,2013-05-24 02:16:00,
2013-05-23 21:17:00,52.2,49.7,30.20,East,89,0.0,0.0,91,0.00,,,0.07,Wunderground v.1.15,2013-05-24 02:17:00,
2013-05-23 21:18:00,52.2,49.9,30.20,East,89,0.0,0.0,92,0.00,,,0.07,Wunderground v.1.15,2013-05-24 02:18:00,
2013-05-23 21:20:00,52.1,49.8,30.20,East,88,0.0,0.0,92,0.00,,,0.07,Wunderground v.1.15,2013-05-24 02:20:00,
2013-05-23 21:21:00,52.1,49.8,30.20,East,87,0.0,0.0,92,0.00,,,0.07,Wunderground v.1.15,2013-05-24 02:21:00,
2013-05-23 21:25:00,51.9,49.6,30.20,East,88,0.0,0.0,92,0.00,,,0.07,Wunderground v.1.15,2013-05-24 02:25:00,
2013-05-23 21:26:00,51.9,49.6,30.20,ENE,61,0.0,0.0,92,0.00,,,0.07,Wunderground v.1.15,2013-05-24 02:26:00,
2013-05-23 21:27:00,51.9,49.6,30.20,ENE,61,0.0,0.0,92,0.00,,,0.07,Wunderground v.1.15,2013-05-24 02:27:00,
2013-05-23 21:28:00,51.9,49.6,30.20,ENE,61,0.0,0.0,92,0.00,,,0.07,Wunderground v.1.15,2013-05-24 02:28:00,
2013-05-23 21:31:00,51.8,49.5,30.20,ENE,61,0.0,0.0,92,0.00,,,0.07,Wunderground v.1.15,2013-05-24 02:31:00,
2013-05-23 21:32:00,51.8,49.5,30.21,ENE,61,0.0,0.0,92,0.00,,,0.07,Wunderground v.1.15,2013-05-24 02:32:00,
2013-05-23 21:33:00,51.8,49.5,30.21,ENE,61,0.0,0.0,92,0.00,,,0.07,Wunderground v.1.15,2013-05-24 02:33:00,
2013-05-23 21:34:00,51.7,49.5,30.21,NE,51,0.0,0.0,92,0.00,,,0.07,Wunderground v.1.15,2013-05-24 02:34:00,
2013-05-23 21:35:00,51.7,49.5,30.21,NE,51,0.0,0.0,92,0.00,,,0.07,Wunderground v.1.15,2013-05-24 02:35:00,
2013-05-23 21:37:00,51.7,49.5,30.21,NE,53,0.0,0.0,92,0.00,,,0.07,Wunderground v.1.15,2013-05-24 02:37:00,
2013-05-23 21:40:00,51.7,49.7,30.21,NE,53,0.0,0.0,93,0.00,,,0.07,Wunderground v.1.15,2013-05-24 02:40:00,
2013-05-23 21:42:00,51.6,49.6,30.21,NE,53,0.0,0.0,93,0.00,,,0.07,Wunderground v.1.15,2013-05-24 02:42:00,
2013-05-23 21:43:00,51.6,49.6,30.21,NE,53,0.0,0.0,93,0.00,,,0.07,Wunderground v.1.15,2013-05-24 02:43:00,
2013-05-23 21:45:00,51.6,49.6,30.21,NE,53,0.0,0.0,93,0.00,,,0.07,Wunderground v.1.15,2013-05-24 02:45:00,
2013-05-23 21:48:00,51.5,49.5,30.21,ENE,72,0.0,0.0,93,0.00,,,0.07,Wunderground v.1.15,2013-05-24 02:48:00,
2013-05-23 21:49:00,51.5,49.5,30.21,ENE,73,0.0,0.0,93,0.00,,,0.07,Wunderground v.1.15,2013-05-24 02:49:00,
2013-05-23 21:51:00,51.5,49.5,30.21,NE,43,0.0,0.0,93,0.00,,,0.07,Wunderground v.1.15,2013-05-24 02:51:00,
2013-05-23 21:53:00,51.5,49.5,30.22,NE,43,0.0,0.0,93,0.00,,,0.07,Wunderground v.1.15,2013-05-24 02:53:00,
2013-05-23 21:54:00,51.5,49.5,30.22,NE,43,0.0,0.0,93,0.00,,,0.07,Wunderground v.1.15,2013-05-24 02:54:00,
2013-05-23 21:55:00,51.5,49.5,30.22,NE,43,0.0,0.0,93,0.00,,,0.07,Wunderground v.1.15,2013-05-24 02:55:00,
2013-05-23 21:58:00,51.4,49.4,30.22,NE,43,0.0,0.0,93,0.00,,,0.07,Wunderground v.1.15,2013-05-24 02:58:00,
2013-05-23 21:59:00,51.4,49.4,30.22,NE,43,0.0,0.0,93,0.00,,,0.07,Wunderground v.1.15,2013-05-24 02:59:00,
2013-05-23 22:01:00,51.3,49.3,30.22,NE,43,0.0,0.0,93,0.00,,,0.07,Wunderground v.1.15,2013-05-24 03:01:00,
2013-05-23 22:03:00,51.3,49.3,30.22,NE,43,0.0,0.0,93,0.00,,,0.07,Wunderground v.1.15,2013-05-24 03:03:00,
2013-05-23 22:06:00,51.3,49.3,30.22,ENE,61,0.0,0.0,93,0.00,,,0.07,Wunderground v.1.15,2013-05-24 03:06:00,
2013-05-23 22:07:00,51.3,49.3,30.22,ENE,60,0.0,0.0,93,0.00,,,0.07,Wunderground v.1.15,2013-05-24 03:07:00,
2013-05-23 22:10:00,51.2,49.2,30.22,ESE,108,0.0,0.0,93,0.00,,,0.07,Wunderground v.1.15,2013-05-24 03:10:00,
2013-05-23 22:11:00,51.2,49.2,30.22,ESE,109,0.0,0.0,93,0.00,,,0.07,Wunderground v.1.15,2013-05-24 03:11:00,
2013-05-23 22:13:00,51.1,49.1,30.22,ESE,108,0.0,0.0,93,0.00,,,0.07,Wunderground v.1.15,2013-05-24 03:13:00,
2013-05-23 22:14:00,51.0,49.0,30.22,ESE,107,0.0,0.0,93,0.00,,,0.07,Wunderground v.1.15,2013-05-24 03:14:00,
2013-05-23 22:15:00,51.0,49.3,30.23,ESE,107,0.0,0.0,94,0.00,,,0.07,Wunderground v.1.15,2013-05-24 03:15:00,
2013-05-23 22:16:00,51.0,49.3,30.23,ESE,107,0.0,0.0,94,0.00,,,0.07,Wunderground v.1.15,2013-05-24 03:16:00,
2013-05-23 22:19:00,50.8,48.8,30.23,ESE,107,0.0,0.0,93,0.00,,,0.07,Wunderground v.1.15,2013-05-24 03:19:00,
2013-05-23 22:20:00,50.8,48.8,30.23,ESE,107,0.0,0.0,93,0.00,,,0.07,Wunderground v.1.15,2013-05-24 03:20:00,
2013-05-23 22:21:00,50.8,48.8,30.23,ESE,105,0.0,0.0,93,0.00,,,0.07,Wunderground v.1.15,2013-05-24 03:21:00,
2013-05-23 22:23:00,50.8,49.1,30.22,ESE,104,0.0,0.0,94,0.00,,,0.07,Wunderground v.1.15,2013-05-24 03:23:00,
2013-05-23 22:24:00,50.7,49.0,30.23,ESE,104,0.0,0.0,94,0.00,,,0.07,Wunderground v.1.15,2013-05-24 03:24:00,
2013-05-23 22:26:00,50.7,49.0,30.23,ESE,104,0.0,0.0,94,0.00,,,0.07,Wunderground v.1.15,2013-05-24 03:26:00,
2013-05-23 22:27:00,50.7,49.0,30.23,ESE,104,0.0,0.0,94,0.00,,,0.07,Wunderground v.1.15,2013-05-24 03:27:00,
2013-05-23 22:30:00,50.6,48.9,30.23,ESE,105,0.0,0.0,94,0.00,,,0.07,Wunderground v.1.15,2013-05-24 03:30:00,
2013-05-23 22:32:00,50.6,48.9,30.23,ESE,104,0.0,0.0,94,0.00,,,0.07,Wunderground v.1.15,2013-05-24 03:32:00,
2013-05-23 22:33:00,50.5,48.8,30.23,ESE,104,0.0,0.0,94,0.00,,,0.07,Wunderground v.1.15,2013-05-24 03:33:00,
2013-05-23 22:35:00,50.5,48.8,30.23,ESE,105,0.0,0.0,94,0.00,,,0.07,Wunderground v.1.15,2013-05-24 03:35:00,
2013-05-23 22:38:00,50.4,48.7,30.23,ESE,104,0.0,0.0,94,0.00,,,0.07,Wunderground v.1.15,2013-05-24 03:38:00,
2013-05-23 22:40:00,50.3,48.6,30.23,ESE,104,0.0,0.0,94,0.00,,,0.07,Wunderground v.1.15,2013-05-24 03:40:00,
2013-05-23 22:42:00,50.3,48.6,30.23,ESE,105,0.0,0.0,94,0.00,,,0.07,Wunderground v.1.15,2013-05-24 03:42:00,
2013-05-23 22:45:00,50.2,48.5,30.23,ESE,105,0.0,0.0,94,0.00,,,0.07,Wunderground v.1.15,2013-05-24 03:45:00,
2013-05-23 22:47:00,50.2,48.5,30.23,ESE,104,0.0,0.0,94,0.00,,,0.07,Wunderground v.1.15,2013-05-24 03:47:00,
2013-05-23 22:50:00,50.1,48.4,30.23,ESE,104,0.0,0.0,94,0.00,,,0.07,Wunderground v.1.15,2013-05-24 03:50:00,
2013-05-23 22:51:00,50.0,48.3,30.23,ESE,104,0.0,0.0,94,0.00,,,0.07,Wunderground v.1.15,2013-05-24 03:51:00,
2013-05-23 22:53:00,49.9,48.2,30.23,ESE,104,0.0,0.0,94,0.00,,,0.07,Wunderground v.1.15,2013-05-24 03:53:00,
2013-05-23 22:54:00,49.9,48.2,30.23,ESE,104,0.0,0.0,94,0.00,,,0.07,Wunderground v.1.15,2013-05-24 03:54:00,
2013-05-23 22:56:00,49.8,48.1,30.23,ESE,104,0.0,0.0,94,0.00,,,0.07,Wunderground v.1.15,2013-05-24 03:56:00,
2013-05-23 22:59:00,49.7,48.0,30.23,ESE,104,0.0,0.0,94,0.00,,,0.07,Wunderground v.1.15,2013-05-24 03:59:00,
2013-05-23 23:00:00,49.7,48.3,30.23,ESE,104,0.0,0.0,95,0.00,,,0.07,Wunderground v.1.15,2013-05-24 04:00:00,
2013-05-23 23:01:00,49.7,48.3,30.23,ESE,105,0.0,0.0,95,0.00,,,0.07,Wunderground v.1.15,2013-05-24 04:01:00,
2013-05-23 23:03:00,49.6,48.2,30.23,ESE,105,0.0,0.0,95,0.00,,,0.07,Wunderground v.1.15,2013-05-24 04:03:00,
2013-05-23 23:04:00,49.6,48.2,30.23,ESE,104,0.0,0.0,95,0.00,,,0.07,Wunderground v.1.15,2013-05-24 04:04:00,
2013-05-23 23:07:00,49.6,48.2,30.23,ESE,105,0.0,0.0,95,0.00,,,0.07,Wunderground v.1.15,2013-05-24 04:07:00,
2013-05-23 23:08:00,49.6,48.2,30.23,ESE,105,0.0,0.0,95,0.00,,,0.07,Wunderground v.1.15,2013-05-24 04:08:00,
2013-05-23 23:10:00,49.5,48.1,30.23,ESE,104,0.0,0.0,95,0.00,,,0.07,Wunderground v.1.15,2013-05-24 04:10:00,
2013-05-23 23:11:00,49.5,48.1,30.23,ESE,105,0.0,0.0,95,0.00,,,0.07,Wunderground v.1.15,2013-05-24 04:11:00,
2013-05-23 23:13:00,49.4,48.0,30.23,ESE,104,0.0,0.0,95,0.00,,,0.07,Wunderground v.1.15,2013-05-24 04:13:00,
2013-05-23 23:16:00,49.3,47.9,30.23,ESE,105,0.0,0.0,95,0.00,,,0.07,Wunderground v.1.15,2013-05-24 04:16:00,
2013-05-23 23:17:00,49.2,47.8,30.23,ESE,105,0.0,0.0,95,0.00,,,0.07,Wunderground v.1.15,2013-05-24 04:17:00,
2013-05-23 23:18:00,49.2,47.8,30.23,ESE,105,0.0,0.0,95,0.00,,,0.07,Wunderground v.1.15,2013-05-24 04:18:00,
2013-05-23 23:19:00,49.2,47.8,30.23,ESE,105,0.0,0.0,95,0.00,,,0.07,Wunderground v.1.15,2013-05-24 04:19:00,
2013-05-23 23:24:00,49.1,47.7,30.23,ESE,104,0.0,0.0,95,0.00,,,0.07,Wunderground v.1.15,2013-05-24 04:24:00,
2013-05-23 23:25:00,49.0,47.6,30.23,ESE,105,0.0,0.0,95,0.00,,,0.07,Wunderground v.1.15,2013-05-24 04:25:00,
2013-05-23 23:26:00,49.0,47.6,30.23,ESE,105,0.0,0.0,95,0.00,,,0.07,Wunderground v.1.15,2013-05-24 04:26:00,
2013-05-23 23:28:00,48.9,47.5,30.23,ESE,104,0.0,0.0,95,0.00,,,0.07,Wunderground v.1.15,2013-05-24 04:28:00,
2013-05-23 23:32:00,48.9,47.5,30.24,ESE,105,0.0,0.0,95,0.00,,,0.07,Wunderground v.1.15,2013-05-24 04:32:00,
2013-05-23 23:33:00,48.9,47.8,30.24,ESE,104,0.0,0.0,96,0.00,,,0.07,Wunderground v.1.15,2013-05-24 04:33:00,
2013-05-23 23:34:00,48.9,47.8,30.24,ESE,104,0.0,0.0,96,0.00,,,0.07,Wunderground v.1.15,2013-05-24 04:34:00,
2013-05-23 23:37:00,48.8,47.7,30.24,ESE,104,0.0,0.0,96,0.00,,,0.07,Wunderground v.1.15,2013-05-24 04:37:00,
2013-05-23 23:38:00,48.8,47.7,30.24,ESE,104,0.0,0.0,96,0.00,,,0.07,Wunderground v.1.15,2013-05-24 04:38:00,
2013-05-23 23:39:00,48.8,47.7,30.24,ESE,104,0.0,0.0,96,0.00,,,0.07,Wunderground v.1.15,2013-05-24 04:39:00,
2013-05-23 23:43:00,48.7,47.6,30.24,ESE,104,0.0,0.0,96,0.00,,,0.07,Wunderground v.1.15,2013-05-24 04:43:00,
2013-05-23 23:44:00,48.7,47.6,30.24,ESE,104,0.0,0.0,96,0.00,,,0.07,Wunderground v.1.15,2013-05-24 04:44:00,
2013-05-23 23:46:00,48.7,47.6,30.24,ESE,104,0.0,0.0,96,0.00,,,0.07,Wunderground v.1.15,2013-05-24 04:46:00,
2013-05-23 23:48:00,48.6,47.5,30.24,ESE,104,0.0,0.0,96,0.00,,,0.07,Wunderground v.1.15,2013-05-24 04:48:00,
2013-05-23 23:50:00,48.6,47.5,30.24,ESE,104,0.0,0.0,96,0.00,,,0.07,Wunderground v.1.15,2013-05-24 04:50:00,
2013-05-23 23:52:00,48.4,47.3,30.24,ESE,104,0.0,0.0,96,0.00,,,0.07,Wunderground v.1.15,2013-05-24 04:52:00,
2013-05-23 23:53:00,48.4,47.3,30.24,ESE,104,0.0,0.0,96,0.00,,,0.07,Wunderground v.1.15,2013-05-24 04:53:00,
2013-05-23 23:55:00,48.4,47.3,30.24,ESE,105,0.0,0.0,96,0.00,,,0.07,Wunderground v.1.15,2013-05-24 04:55:00,
2013-05-23 23:56:00,48.4,47.3,30.24,ESE,104,0.0,0.0,96,0.00,,,0.07,Wunderground v.1.15,2013-05-24 04:56:00,
2013-05-23 23:57:00,48.3,47.2,30.25,ESE,104,0.0,0.0,96,0.00,,,0.07,Wunderground v.1.15,2013-05-24 04:57:00,